K9NZF-2 Weather Reports


time (UTC)temp
C
wind
direction
speed
KPH
gust
KPH
rain 1hr
cm
rain 24hr
cm
rain mn
cm
humidity
%
barometer
mb
20260509043834 12 212 9.7 24.1 0.03 0.25 0.00 91 970.6
20260509043734 12 179 11.3 24.1 0.03 0.25 0.00 91 970.6
20260509043633 12 236 9.7 24.1 0.03 0.25 0.00 91 970.6
20260509043534 12 233 11.3 24.1 0.03 0.25 0.00 91 970.6
20260509043438 12 222 11.3 24.1 0.03 0.25 0.00 91 970.6
20260509043335 12 242 11.3 24.1 0.03 0.25 0.00 92 970.6
20260509043233 12 238 9.7 24.1 0.03 0.25 0.00 92 970.6
20260509043132 12 195 11.3 17.7 0.03 0.25 0.00 92 970.5
20260509043030 12 193 11.3 17.7 0.03 0.25 0.00 92 970.6
20260509042932 12 211 11.3 19.3 0.03 0.25 0.00 92 970.6
20260509042834 12 195 11.3 19.3 0.03 0.25 0.00 92 970.6
20260509042734 12 218 11.3 19.3 0.03 0.25 0.00 92 970.6
20260509042633 12 235 11.3 19.3 0.03 0.25 0.00 92 970.5
20260509042534 12 214 11.3 19.3 0.03 0.25 0.00 92 970.5
20260509042430 12 188 11.3 19.3 0.03 0.25 0.00 92 970.5
20260509042330 12 207 11.3 19.3 0.03 0.25 0.00 92 970.5
20260509042231 12 198 11.3 22.5 0.03 0.25 0.00 92 970.5
20260509042130 12 210 11.3 22.5 0.03 0.25 0.00 92 970.5
20260509042031 12 193 11.3 22.5 0.03 0.25 0.00 92 970.5
20260509041935 12 221 11.3 22.5 0.03 0.25 0.00 92 970.5
20260509041830 12 222 11.3 22.5 0.03 0.25 0.00 92 970.5
20260509041731 12 207 11.3 22.5 0.03 0.25 0.00 92 970.5
20260509041634 12 221 11.3 22.5 0.03 0.25 0.00 92 970.5
20260509041530 12 195 11.3 22.5 0.03 0.25 0.00 92 970.4
20260509041430 12 228 11.3 22.5 0.03 0.25 0.00 92 970.4
20260509041329 12 218 11.3 22.5 0.03 0.25 0.00 92 970.5
20260509041233 12 226 11.3 20.9 0.03 0.25 0.00 92 970.5
20260509041129 12 237 11.3 20.9 0.03 0.25 0.00 92 970.4
20260509041030 12 217 11.3 20.9 0.03 0.25 0.00 92 970.5
20260509040930 12 199 11.3 24.1 0.03 0.25 0.00 92 970.5
20260509040831 12 226 11.3 24.1 0.03 0.25 0.00 92 970.5
20260509040732 12 219 12.9 24.1 0.03 0.25 0.00 92 970.5
20260509040629 12 248 12.9 24.1 0.03 0.25 0.00 92 970.5
20260509040529 12 219 12.9 24.1 0.03 0.25 0.00 92 970.5
20260509040428 12 231 12.9 24.1 0.03 0.25 0.00 91 970.5
20260509040331 12 188 12.9 24.1 0.03 0.25 0.00 91 970.5
20260509040229 12 181 14.5 24.1 0.03 0.25 0.00 91 970.6
20260509040133 12 204 14.5 24.1 0.03 0.25 0.00 91 970.6
20260509040030 12 247 12.9 24.1 0.03 0.25 0.00 91 970.6
20260509035930 12 195 12.9 24.1 0.03 0.25 0.25 91 970.6
20260509035831 12 234 12.9 24.1 0.03 0.25 0.25 91 970.6
20260509035735 12 258 12.9 24.1 0.03 0.25 0.25 91 970.6
20260509035631 12 221 12.9 24.1 0.03 0.25 0.25 91 970.6
20260509035530 12 213 12.9 24.1 0.00 0.23 0.25 91 970.6
20260509035430 12 219 12.9 24.1 0.00 0.23 0.23 91 970.6
20260509035331 12 197 12.9 24.1 0.00 0.23 0.23 91 970.6
20260509035230 12 198 12.9 24.1 0.00 0.23 0.23 91 970.6
20260509035131 12 217 12.9 22.5 0.00 0.23 0.23 91 970.6
20260509035032 12 229 12.9 20.9 0.00 0.23 0.23 91 970.6
20260509034929 12 217 11.3 20.9 0.00 0.23 0.23 90 970.6
20260509034830 12 205 11.3 19.3 0.00 0.23 0.23 90 970.6
20260509034728 12 234 11.3 19.3 0.00 0.23 0.23 91 970.6
20260509034631 12 171 11.3 19.3 0.00 0.23 0.23 91 970.6
20260509034531 12 266 11.3 19.3 0.00 0.23 0.23 90 970.7
20260509034430 12 243 11.3 27.4 0.00 0.23 0.23 90 970.6
20260509034329 12 216 11.3 27.4 0.00 0.23 0.23 90 970.6
20260509034229 12 203 11.3 27.4 0.00 0.23 0.23 90 970.7
20260509034130 12 221 11.3 27.4 0.00 0.23 0.23 90 970.7
20260509034030 12 236 11.3 27.4 0.00 0.23 0.23 90 970.7
20260509033932 12 218 12.9 27.4 0.00 0.23 0.23 90 970.7
20260509033833 12 250 12.9 27.4 0.00 0.23 0.23 90 970.7
20260509033731 12 217 12.9 27.4 0.00 0.23 0.23 90 970.8
20260509033631 12 222 12.9 27.4 0.00 0.23 0.23 90 970.8
20260509033530 12 228 12.9 27.4 0.00 0.23 0.23 90 970.8
20260509033432 12 214 12.9 24.1 0.00 0.23 0.23 90 970.8
20260509033328 12 239 12.9 24.1 0.00 0.23 0.23 90 970.8
20260509033230 12 239 12.9 24.1 0.00 0.23 0.23 90 970.7
20260509033131 12 256 12.9 24.1 0.00 0.23 0.23 90 970.7
20260509033031 12 213 11.3 24.1 0.00 0.23 0.23 90 970.7
20260509032929 12 203 12.9 24.1 0.00 0.23 0.23 90 970.8
20260509032830 12 219 11.3 24.1 0.00 0.23 0.23 90 970.8
20260509032729 12 214 11.3 24.1 0.00 0.23 0.23 90 970.8
20260509032631 12 212 11.3 24.1 0.00 0.23 0.23 90 970.8
20260509032531 12 255 11.3 24.1 0.00 0.23 0.23 89 970.8
20260509032431 12 252 11.3 24.1 0.00 0.23 0.23 89 970.9
20260509032330 12 221 11.3 24.1 0.00 0.23 0.23 89 970.9
20260509032231 12 231 9.7 22.5 0.00 0.23 0.23 89 971.0
20260509032130 12 229 11.3 22.5 0.00 0.23 0.23 89 970.9
20260509032030 12 227 9.7 22.5 0.00 0.23 0.23 89 971.0
20260509031931 12 217 9.7 22.5 0.00 0.23 0.23 89 971.0
20260509031830 12 238 9.7 22.5 0.00 0.23 0.23 89 971.1
20260509031730 12 216 11.3 22.5 0.00 0.23 0.23 89 971.0
20260509031631 12 229 9.7 22.5 0.00 0.23 0.23 89 971.1
20260509031529 12 235 9.7 22.5 0.00 0.23 0.23 89 971.0
20260509031432 12 245 11.3 22.5 0.00 0.23 0.23 89 971.0
20260509031330 12 231 12.9 25.7 0.00 0.23 0.23 89 970.9
20260509031231 12 239 12.9 25.7 0.00 0.23 0.23 89 971.0
20260509031134 12 253 12.9 25.7 0.00 0.23 0.23 89 970.9
20260509031032 12 230 12.9 25.7 0.00 0.23 0.23 89 970.9
20260509030930 12 213 12.9 25.7 0.00 0.23 0.23 89 970.9
20260509030830 12 215 12.9 25.7 0.00 0.23 0.23 89 970.9
20260509030730 12 219 12.9 25.7 0.00 0.23 0.23 89 970.9
20260509030633 12 218 14.5 27.4 0.00 0.23 0.23 89 970.9
20260509030531 12 219 14.5 27.4 0.00 0.23 0.23 89 971.0
20260509030432 12 244 14.5 27.4 0.00 0.23 0.23 89 971.0
20260509030330 12 219 14.5 27.4 0.00 0.23 0.23 89 971.0
20260509030230 12 221 12.9 27.4 0.00 0.23 0.23 89 971.1
20260509030130 12 189 12.9 27.4 0.00 0.23 0.23 89 971.0
20260509030029 12 258 12.9 27.4 0.00 0.23 0.23 89 971.0
20260509025930 12 185 12.9 27.4 0.00 0.23 0.23 89 971.0
20260509025829 12 243 12.9 27.4 0.00 0.23 0.23 89 971.0
20260509025733 12 233 12.9 27.4 0.00 0.23 0.23 90 971.1
20260509025631 12 233 12.9 22.5 0.00 0.23 0.23 90 971.1
20260509025531 12 219 11.3 22.5 0.00 0.23 0.23 90 971.0
20260509025431 12 227 11.3 22.5 0.00 0.23 0.23 90 971.0
20260509025330 12 213 11.3 22.5 0.03 0.23 0.23 90 971.0
20260509025230 12 184 9.7 22.5 0.03 0.23 0.23 90 971.1
20260509025132 12 238 9.7 22.5 0.03 0.23 0.23 90 971.1
20260509025032 12 247 9.7 22.5 0.03 0.23 0.23 90 971.0
20260509024933 12 193 9.7 19.3 0.03 0.23 0.23 90 971.0
20260509024831 12 203 9.7 19.3 0.03 0.23 0.23 90 971.1
20260509024729 12 211 9.7 22.5 0.03 0.23 0.23 90 971.1
20260509024632 12 201 9.7 22.5 0.03 0.23 0.23 90 971.0
20260509024529 12 250 9.7 22.5 0.03 0.23 0.23 90 971.0
20260509024432 12 250 9.7 22.5 0.03 0.23 0.23 90 971.1
20260509024332 12 225 11.3 22.5 0.03 0.23 0.23 90 971.1
20260509024229 12 243 11.3 22.5 0.03 0.23 0.23 90 971.2
20260509024132 12 215 11.3 22.5 0.03 0.23 0.23 90 971.2
20260509024031 12 243 11.3 22.5 0.03 0.23 0.23 90 971.2
20260509023932 12 271 11.3 22.5 0.03 0.23 0.23 90 971.2
20260509023830 12 205 11.3 22.5 0.03 0.23 0.23 90 971.2
20260509023731 12 207 11.3 22.5 0.03 0.23 0.23 90 971.2
20260509023632 12 233 11.3 22.5 0.03 0.23 0.23 90 971.1
20260509023533 12 223 11.3 22.5 0.03 0.23 0.23 90 971.1
20260509023429 12 220 11.3 22.5 0.03 0.23 0.23 90 971.1
20260509023332 12 192 11.3 22.5 0.03 0.23 0.23 90 971.1
20260509023231 12 233 11.3 22.5 0.03 0.23 0.23 90 971.1
20260509023131 12 260 9.7 22.5 0.03 0.23 0.23 90 971.1
20260509023029 12 203 9.7 22.5 0.03 0.23 0.23 90 971.1
20260509022930 12 224 9.7 20.9 0.03 0.23 0.23 90 971.1
20260509022829 12 238 9.7 20.9 0.03 0.23 0.23 90 971.1
20260509022730 12 227 9.7 19.3 0.03 0.23 0.23 90 971.1
20260509022634 12 291 9.7 19.3 0.03 0.23 0.23 90 971.1
20260509022529 12 217 9.7 19.3 0.03 0.23 0.23 90 971.1
20260509022431 12 207 9.7 19.3 0.03 0.23 0.23 90 971.1
20260509022329 12 225 9.7 19.3 0.03 0.23 0.23 90 971.1
20260509022230 12 197 9.7 19.3 0.03 0.23 0.23 90 971.1
20260509022131 12 231 9.7 19.3 0.03 0.23 0.23 90 971.1
20260509022031 12 191 9.7 19.3 0.03 0.23 0.23 90 971.1
20260509021930 12 265 9.7 19.3 0.03 0.23 0.23 90 971.1
20260509021832 12 231 9.7 19.3 0.03 0.23 0.23 90 971.2
20260509021730 12 232 9.7 19.3 0.03 0.23 0.23 90 971.2
20260509021636 12 221 9.7 19.3 0.03 0.23 0.23 90 971.2
20260509021530 12 224 9.7 19.3 0.03 0.23 0.23 90 971.2
20260509021430 12 268 9.7 19.3 0.03 0.23 0.23 90 971.2
20260509021328 12 204 9.7 19.3 0.03 0.23 0.23 90 971.2
20260509021229 12 238 9.7 19.3 0.03 0.23 0.23 90 971.2
20260509021130 12 214 8.0 19.3 0.03 0.23 0.23 90 971.2
20260509021032 12 235 8.0 19.3 0.03 0.23 0.23 90 971.2
20260509020930 12 240 8.0 19.3 0.03 0.23 0.23 90 971.2
20260509020837 12 215 8.0 19.3 0.03 0.23 0.23 90 971.2
20260509020730 12 220 9.7 19.3 0.03 0.23 0.23 90 971.2
20260509020630 12 217 9.7 19.3 0.03 0.23 0.23 90 971.2
20260509020529 12 245 9.7 19.3 0.03 0.23 0.23 90 971.2
20260509020429 12 178 9.7 19.3 0.03 0.23 0.23 90 971.2
20260509020329 12 225 9.7 19.3 0.03 0.23 0.23 90 971.2
20260509020230 12 216 9.7 19.3 0.03 0.23 0.23 90 971.2
20260509020131 12 236 9.7 19.3 0.03 0.23 0.23 90 971.2
20260509020032 12 254 9.7 19.3 0.03 0.23 0.23 90 971.1
20260509015930 12 212 9.7 19.3 0.03 0.23 0.23 90 971.1
20260509015832 12 227 9.7 19.3 0.03 0.23 0.23 90 971.1
20260509015730 12 215 9.7 19.3 0.03 0.23 0.23 90 971.1
20260509015630 12 214 9.7 19.3 0.03 0.23 0.23 90 971.1
20260509015530 12 255 9.7 19.3 0.03 0.23 0.23 90 971.1
20260509015429 12 214 9.7 17.7 0.03 0.23 0.23 90 971.1
20260509015329 12 251 9.7 19.3 0.00 0.20 0.20 90 971.1
20260509015229 12 232 9.7 19.3 0.00 0.20 0.20 90 971.1
20260509015134 12 212 9.7 19.3 0.00 0.20 0.20 90 971.1
20260509015032 12 222 9.7 19.3 0.00 0.20 0.20 90 971.0
20260509014930 12 220 9.7 19.3 0.00 0.20 0.20 90 971.0
20260509014829 12 204 9.7 19.3 0.00 0.20 0.20 90 971.0
20260509014732 12 200 9.7 19.3 0.00 0.20 0.20 90 971.1
20260509014630 12 195 9.7 19.3 0.00 0.20 0.20 90 971.1
20260509014530 12 242 9.7 19.3 0.00 0.20 0.20 90 971.1
20260509014435 12 230 9.7 22.5 0.00 0.20 0.20 90 971.1
20260509014329 12 207 9.7 22.5 0.00 0.20 0.20 90 971.1
20260509014231 12 217 9.7 22.5 0.00 0.20 0.20 90 971.1
20260509014129 12 225 11.3 22.5 0.00 0.20 0.20 90 971.1
20260509014030 12 205 11.3 22.5 0.00 0.20 0.20 90 971.1
20260509013928 12 230 9.7 22.5 0.00 0.20 0.20 90 971.0
20260509013830 12 253 11.3 22.5 0.00 0.20 0.20 90 971.0
20260509013729 12 202 11.3 22.5 0.00 0.20 0.20 90 971.0
20260509013631 12 214 11.3 22.5 0.00 0.20 0.20 90 971.1
20260509013533 12 236 9.7 22.5 0.00 0.20 0.20 90 971.1
20260509013430 12 176 9.7 19.3 0.00 0.20 0.20 90 971.1
20260509013339 12 201 9.7 19.3 0.00 0.20 0.20 90 971.1
20260509013230 12 240 9.7 19.3 0.00 0.20 0.20 90 971.1
20260509013129 12 198 9.7 19.3 0.00 0.20 0.20 90 971.1
20260509013029 12 261 9.7 19.3 0.00 0.20 0.20 90 971.1
20260509012930 12 242 9.7 20.9 0.00 0.20 0.20 90 971.1
20260509012829 12 226 9.7 20.9 0.00 0.20 0.20 90 971.1
20260509012728 12 243 9.7 20.9 0.00 0.20 0.20 90 971.0
20260509012629 12 195 9.7 20.9 0.00 0.20 0.20 90 971.0
20260509012529 12 235 9.7 20.9 0.00 0.20 0.20 90 971.0
20260509012434 12 245 9.7 20.9 0.00 0.20 0.20 90 971.0
20260509012331 12 198 9.7 20.9 0.00 0.20 0.20 90 971.0
20260509012306 12 186 9.7 20.9 0.00 0.20 0.20 91 971.0
20260509012231 12 186 9.7 20.9 0.00 0.20 0.20 91 971.0
20260509012131 12 220 9.7 20.9 0.00 0.20 0.20 91 971.0
20260509012029 12 228 9.7 20.9 0.00 0.20 0.20 91 971.0
20260509011930 12 230 9.7 19.3 0.00 0.20 0.20 91 971.0
20260509011833 12 214 8.0 19.3 0.00 0.20 0.20 91 971.0
20260509011730 12 257 8.0 19.3 0.00 0.20 0.20 91 971.0
20260509011631 12 219 8.0 17.7 0.00 0.20 0.20 91 971.0
20260509011530 12 248 8.0 17.7 0.00 0.20 0.20 91 971.0
20260509011432 12 233 8.0 17.7 0.00 0.20 0.20 91 971.0
20260509011331 12 226 6.4 17.7 0.00 0.20 0.20 91 971.0
20260509011230 12 221 6.4 12.9 0.00 0.20 0.20 91 971.1
20260509011129 12 246 6.4 12.9 0.00 0.20 0.20 91 971.1
20260509011030 12 228 6.4 12.9 0.00 0.20 0.20 91 971.1
20260509010929 12 223 6.4 12.9 0.00 0.20 0.20 91 971.1
20260509010833 12 240 6.4 12.9 0.00 0.20 0.20 91 971.1
20260509010729 12 238 6.4 14.5 0.00 0.20 0.20 91 971.1
20260509010631 12 189 6.4 14.5 0.00 0.20 0.20 91 971.1
20260509010530 12 244 6.4 14.5 0.00 0.20 0.20 91 971.1
20260509010430 12 210 6.4 14.5 0.00 0.20 0.20 91 971.0
20260509010331 12 212 6.4 14.5 0.00 0.20 0.20 91 971.0
20260509010230 12 220 6.4 14.5 0.00 0.20 0.20 91 971.1
20260509010132 12 197 6.4 14.5 0.00 0.20 0.20 91 971.1
20260509010030 12 221 6.4 17.7 0.00 0.20 0.20 91 971.1
20260509005929 12 233 6.4 17.7 0.00 0.20 0.20 91 971.1
20260509005831 12 232 6.4 17.7 0.00 0.20 0.20 91 971.1
20260509005732 12 211 4.8 17.7 0.00 0.20 0.20 91 971.1
20260509005625 12 221 6.4 17.7 0.00 0.20 0.20 91 971.1
20260509005526 12 235 6.4 17.7 0.00 0.20 0.20 91 971.0
20260509005427 12 235 6.4 17.7 0.00 0.20 0.20 91 971.0
20260509005326 12 234 6.4 17.7 0.03 0.20 0.20 91 971.0
20260509005227 12 175 8.0 17.7 0.03 0.20 0.20 91 971.0
20260509005132 12 245 8.0 17.7 0.03 0.20 0.20 91 971.0
20260509005026 12 237 8.0 14.5 0.03 0.20 0.20 91 971.1
20260509004927 12 200 8.0 14.5 0.03 0.20 0.20 91 971.1
20260509004825 12 251 8.0 14.5 0.03 0.20 0.20 91 971.0
20260509004724 12 207 8.0 14.5 0.03 0.20 0.20 91 971.0
20260509004628 12 224 8.0 14.5 0.03 0.20 0.20 91 971.1
20260509004526 12 214 8.0 14.5 0.03 0.20 0.20 91 971.1
20260509004425 12 219 8.0 14.5 0.03 0.20 0.20 91 971.1
20260509004326 12 235 8.0 14.5 0.03 0.20 0.20 91 971.1
20260509004226 12 224 8.0 16.1 0.03 0.20 0.20 91 971.1
20260509004126 12 236 8.0 16.1 0.03 0.20 0.20 91 971.1
20260509004027 12 218 8.0 16.1 0.03 0.20 0.20 91 971.1
20260509003925 12 219 8.0 16.1 0.03 0.20 0.20 91 971.0
20260509003826 12 245 8.0 16.1 0.03 0.20 0.20 91 971.1
20260509003726 12 217 8.0 16.1 0.03 0.20 0.20 91 971.1
20260509003622 12 231 8.0 16.1 0.03 0.20 0.20 91 971.1
20260509003523 12 162 8.0 16.1 0.05 0.20 0.20 91 971.1
20260509003423 12 207 8.0 16.1 0.05 0.20 0.20 91 971.2
20260509003321 12 216 8.0 16.1 0.05 0.20 0.20 91 971.2
20260509003221 12 212 6.4 14.5 0.05 0.20 0.20 91 971.1
20260509003124 12 241 6.4 14.5 0.05 0.20 0.20 91 971.2
20260509003022 12 212 6.4 14.5 0.05 0.20 0.20 91 971.2
20260509002921 12 210 6.4 14.5 0.05 0.20 0.20 91 971.1
20260509002822 12 207 4.8 14.5 0.05 0.20 0.20 91 971.1
20260509002722 12 222 4.8 14.5 0.05 0.20 0.20 91 971.2
20260509002622 12 181 4.8 14.5 0.05 0.20 0.20 91 971.1
20260509002521 12 210 4.8 9.7 0.05 0.20 0.20 91 971.1
20260509002422 12 203 4.8 9.7 0.05 0.20 0.20 91 971.1
20260509002323 12 176 4.8 11.3 0.05 0.20 0.20 91 971.0
20260509002223 12 251 4.8 11.3 0.05 0.20 0.20 91 971.0
20260509002122 12 227 4.8 11.3 0.05 0.20 0.20 90 971.0
20260509002022 12 203 4.8 11.3 0.05 0.20 0.20 90 971.0
20260509001922 12 226 4.8 11.3 0.05 0.20 0.20 90 971.0
20260509001819 12 230 4.8 11.3 0.05 0.20 0.20 90 971.0
20260509001718 12 207 6.4 12.9 0.05 0.20 0.20 90 971.0
20260509001617 12 198 6.4 12.9 0.05 0.20 0.20 90 971.1
20260509001518 12 240 6.4 12.9 0.05 0.20 0.20 90 971.1
20260509001418 12 231 6.4 12.9 0.05 0.20 0.20 90 971.1
20260509001318 12 237 6.4 12.9 0.05 0.20 0.20 90 971.1
20260509001222 12 217 8.0 12.9 0.05 0.20 0.20 90 971.1
20260509001117 12 261 8.0 12.9 0.05 0.20 0.20 90 971.1
20260509001017 12 225 8.0 12.9 0.05 0.20 0.20 90 971.1
20260509000918 12 243 8.0 12.9 0.05 0.20 0.20 90 971.1
20260509000818 12 244 8.0 12.9 0.05 0.20 0.20 90 971.1
20260509000718 12 252 6.4 12.9 0.05 0.20 0.20 90 971.1
20260509000621 12 212 6.4 11.3 0.05 0.20 0.20 90 971.2
20260509000518 12 237 6.4 11.3 0.05 0.20 0.20 90 971.1
20260509000418 12 153 6.4 11.3 0.05 0.20 0.20 90 971.2
20260509000318 12 174 6.4 11.3 0.05 0.20 0.20 90 971.1
20260509000219 12 221 4.8 11.3 0.05 0.20 0.20 90 971.2
20260509000118 12 186 4.8 11.3 0.05 0.20 0.20 90 971.2
20260509000021 12 254 4.8 9.7 0.05 0.20 0.20 90 971.2
20260508235914 12 221 4.8 9.7 0.05 0.20 0.20 90 971.3
20260508235813 12 211 4.8 9.7 0.05 0.20 0.20 90 971.3
20260508235716 12 240 4.8 9.7 0.05 0.20 0.20 90 971.3
20260508235612 12 220 4.8 9.7 0.05 0.20 0.20 90 971.3
20260508235515 12 252 4.8 11.3 0.05 0.20 0.20 90 971.3
20260508235414 12 224 4.8 11.3 0.05 0.20 0.20 90 971.3
20260508235314 12 212 4.8 11.3 0.03 0.18 0.20 90 971.3
20260508235214 12 203 6.4 12.9 0.03 0.18 0.18 90 971.3
20260508235114 12 244 6.4 12.9 0.03 0.18 0.18 90 971.4
20260508235015 12 174 6.4 12.9 0.03 0.18 0.18 90 971.4
20260508234913 12 217 6.4 12.9 0.03 0.18 0.18 90 971.3
20260508234813 12 255 6.4 12.9 0.03 0.18 0.18 90 971.3
20260508234713 12 213 8.0 12.9 0.03 0.18 0.18 90 971.4
20260508234616 12 227 8.0 12.9 0.03 0.18 0.18 90 971.4
20260508234514 12 221 8.0 12.9 0.03 0.18 0.18 90 971.4
20260508234414 12 250 8.0 12.9 0.03 0.18 0.18 90 971.4
20260508234313 12 227 6.4 12.9 0.03 0.18 0.18 90 971.3
20260508234214 12 226 6.4 17.7 0.03 0.18 0.18 90 971.3
20260508234116 12 197 6.4 17.7 0.03 0.18 0.18 90 971.3
20260508234009 12 207 6.4 17.7 0.03 0.18 0.18 90 971.4
20260508233909 12 224 6.4 17.7 0.05 0.18 0.18 90 971.3
20260508233808 12 242 6.4 17.7 0.05 0.18 0.18 90 971.3
20260508233708 12 206 6.4 17.7 0.05 0.18 0.18 90 971.3
20260508233607 12 221 8.0 17.7 0.05 0.18 0.18 90 971.3
20260508233505 12 209 8.0 17.7 0.03 0.15 0.18 90 971.3
20260508233407 12 217 8.0 17.7 0.03 0.15 0.15 90 971.3
20260508233305 12 188 8.0 17.7 0.03 0.15 0.15 90 971.3
20260508233210 12 210 6.4 16.1 0.03 0.15 0.15 90 971.4
20260508233105 12 219 6.4 16.1 0.05 0.15 0.15 90 971.4
20260508233004 12 217 6.4 16.1 0.05 0.15 0.15 90 971.3
20260508232905 12 259 6.4 16.1 0.05 0.15 0.15 90 971.3
20260508232806 12 215 6.4 16.1 0.05 0.15 0.15 91 971.3
20260508232708 12 219 6.4 16.1 0.05 0.15 0.15 91 971.3
20260508232604 12 238 4.8 16.1 0.05 0.15 0.15 91 971.3
20260508232506 12 176 4.8 8.0 0.05 0.15 0.15 91 971.3
20260508232406 12 219 4.8 8.0 0.05 0.15 0.15 91 971.4
20260508232307 12 231 4.8 8.0 0.05 0.15 0.15 91 971.3
20260508232202 12 224 4.8 8.0 0.05 0.15 0.15 91 971.3
20260508232103 12 225 4.8 8.0 0.08 0.15 0.15 91 971.3
20260508232001 12 207 4.8 8.0 0.08 0.15 0.15 91 971.3
20260508231902 12 221 3.2 8.0 0.08 0.15 0.15 91 971.3
20260508231804 12 224 4.8 8.0 0.08 0.15 0.15 91 971.2
20260508231702 12 164 4.8 8.0 0.08 0.15 0.15 91 971.2
20260508231602 12 183 4.8 8.0 0.08 0.15 0.15 91 971.2
20260508231503 12 138 4.8 8.0 0.08 0.15 0.15 91 971.2
20260508231405 12 168 4.8 8.0 0.10 0.15 0.15 91 971.2
20260508231302 12 207 4.8 8.0 0.10 0.15 0.15 91 971.2
20260508231159 12 195 4.8 8.0 0.10 0.15 0.15 91 971.2
20260508231100 12 182 4.8 8.0 0.10 0.15 0.15 91 971.2
20260508230958 12 196 4.8 8.0 0.10 0.15 0.15 91 971.2
20260508230858 12 196 4.8 8.0 0.10 0.15 0.15 91 971.2
20260508230751 12 183 3.2 8.0 0.13 0.15 0.15 91 971.1
20260508230648 12 185 3.2 6.4 0.13 0.15 0.15 91 971.1
20260508230549 12 217 3.2 6.4 0.13 0.15 0.15 91 971.2
20260508230450 12 219 3.2 6.4 0.13 0.15 0.15 91 971.2
20260508230350 12 193 1.6 6.4 0.13 0.15 0.15 91 971.2
20260508230246 12 203 1.6 6.4 0.13 0.15 0.15 91 971.1
20260508230150 12 207 1.6 6.4 0.13 0.15 0.15 91 971.1
20260508230045 12 207 1.6 6.4 0.13 0.15 0.15 90 971.1
20260508225947 12 155 1.6 4.8 0.13 0.15 0.15 90 971.1
20260508225849 12 162 1.6 4.8 0.13 0.15 0.15 90 971.1
20260508225743 12 170 1.6 4.8 0.13 0.15 0.15 90 971.1
20260508225645 12 198 1.6 4.8 0.13 0.15 0.15 90 971.2
20260508225544 12 198 1.6 4.8 0.13 0.15 0.15 90 971.2
20260508225445 12 198 1.6 4.8 0.13 0.15 0.15 90 971.2
20260508225341 12 198 1.6 4.8 0.13 0.15 0.15 90 971.3
20260508225241 12 198 1.6 3.2 0.13 0.15 0.15 90 971.2
20260508225142 12 198 1.6 3.2 0.13 0.15 0.15 90 971.2
20260508225040 12 198 1.6 3.2 0.15 0.15 0.15 90 971.3
20260508224937 12 198 1.6 3.2 0.15 0.15 0.15 90 971.3
20260508224839 12 136 1.6 3.2 0.15 0.15 0.15 90 971.4
20260508224739 12 224 1.6 3.2 0.15 0.15 0.15 90 971.4
20260508224638 12 224 1.6 3.2 0.15 0.15 0.15 90 971.5
20260508224537 12 224 1.6 3.2 0.15 0.15 0.15 90 971.5
20260508224437 12 200 1.6 3.2 0.15 0.15 0.15 90 971.5
20260508224342 12 186 1.6 3.2 0.15 0.15 0.15 90 971.6
20260508224238 12 231 1.6 3.2 0.15 0.15 0.15 90 971.6
20260508224136 12 231 1.6 3.2 0.15 0.15 0.15 90 971.6
20260508224038 12 231 1.6 3.2 0.15 0.15 0.15 90 971.7
20260508223934 12 252 1.6 4.8 0.13 0.13 0.15 90 971.7
20260508223831 12 239 1.6 4.8 0.13 0.13 0.13 90 971.6
20260508223732 12 239 1.6 4.8 0.13 0.13 0.13 90 971.7
20260508223630 12 239 1.6 4.8 0.13 0.13 0.13 90 971.6
20260508223532 12 239 1.6 4.8 0.13 0.13 0.13 90 971.6
20260508223430 12 239 1.6 4.8 0.13 0.13 0.13 90 971.7
20260508223332 12 237 1.6 4.8 0.13 0.13 0.13 89 971.7
20260508223231 12 237 1.6 4.8 0.13 0.13 0.13 89 971.7
20260508223133 12 237 3.2 6.4 0.13 0.13 0.13 89 971.7
20260508223028 12 237 3.2 8.0 0.10 0.10 0.13 89 971.7
20260508222934 12 215 3.2 11.3 0.10 0.10 0.10 89 971.7
20260508222827 12 259 3.2 11.3 0.10 0.10 0.10 89 971.7
20260508222730 12 288 3.2 11.3 0.10 0.10 0.10 89 971.8
20260508222626 12 288 3.2 11.3 0.10 0.10 0.10 88 971.8
20260508222522 12 288 3.2 11.3 0.10 0.10 0.10 88 971.8
20260508222421 12 314 3.2 11.3 0.10 0.10 0.10 88 971.8
20260508222321 12 302 3.2 11.3 0.10 0.10 0.10 88 971.9
20260508222220 12 304 3.2 11.3 0.10 0.10 0.10 88 971.9
20260508222120 12 301 3.2 11.3 0.08 0.08 0.08 87 971.8
20260508222015 12 262 3.2 11.3 0.08 0.08 0.08 87 971.8
20260508221915 12 299 3.2 6.4 0.08 0.08 0.08 87 971.8
20260508221813 13 293 3.2 9.7 0.08 0.08 0.08 87 971.8
20260508221718 13 335 3.2 9.7 0.08 0.08 0.08 87 971.9
20260508221614 13 291 3.2 9.7 0.08 0.08 0.08 86 971.8
20260508221515 13 269 3.2 9.7 0.08 0.08 0.08 86 971.8
20260508221415 13 278 3.2 9.7 0.05 0.05 0.08 86 971.8
20260508221317 13 309 3.2 9.7 0.05 0.05 0.05 86 971.7
20260508221215 13 271 3.2 9.7 0.05 0.05 0.05 85 971.7
20260508221112 13 292 3.2 9.7 0.05 0.05 0.05 85 971.7
20260508221015 13 300 3.2 9.7 0.05 0.05 0.05 85 971.7
20260508220915 13 300 3.2 9.7 0.05 0.05 0.05 85 971.6
20260508220812 13 310 3.2 8.0 0.03 0.03 0.05 84 971.6
20260508220712 13 300 3.2 8.0 0.03 0.03 0.03 84 971.6
20260508220615 13 289 3.2 8.0 0.03 0.03 0.03 84 971.5
20260508220510 13 319 3.2 8.0 0.03 0.03 0.03 83 971.5
20260508220410 13 328 3.2 8.0 0.03 0.03 0.03 83 971.5
20260508220308 13 311 3.2 8.0 0.03 0.03 0.03 83 971.5
20260508220205 13 311 3.2 8.0 0.03 0.03 0.03 83 971.5
20260508220002 13 288 4.8 8.0 0.03 0.03 0.03 83 971.5
20260508215904 13 318 4.8 8.0 0.03 0.03 0.03 82 971.4
20260508215804 13 294 4.8 9.7 0.03 0.03 0.03 82 971.4
20260508215703 13 304 4.8 9.7 0.03 0.03 0.03 82 971.4
20260508215604 13 330 4.8 9.7 0.03 0.03 0.03 82 971.3
20260508215505 13 323 4.8 9.7 0.03 0.03 0.03 81 971.4
20260508215405 13 320 4.8 9.7 0.03 0.03 0.03 81 971.3
20260508215306 13 335 4.8 9.7 0.03 0.03 0.03 81 971.3
20260508215203 13 323 4.8 9.7 0.03 0.03 0.03 80 971.3
20260508215102 13 316 4.8 9.7 0.03 0.03 0.03 80 971.2
20260508215004 13 321 4.8 9.7 0.00 0.00 0.00 80 971.2
20260508214901 13 317 4.8 9.7 0.00 0.00 0.00 80 971.1
20260508214802 13 338 4.8 9.7 0.00 0.00 0.00 79 971.1
20260508214704 13 328 4.8 9.7 0.00 0.00 0.00 79 971.1
20260508214604 13 329 4.8 9.7 0.00 0.00 0.00 79 971.1
20260508214501 13 323 4.8 9.7 0.00 0.00 0.00 79 971.1
20260508214403 14 307 4.8 9.7 0.00 0.00 0.00 79 971.1
20260508214305 14 326 4.8 8.0 0.00 0.00 0.00 78 971.1
20260508214204 14 326 4.8 8.0 0.00 0.00 0.00 77 971.1
20260508214102 14 325 4.8 8.0 0.00 0.00 0.00 77 971.1
20260508214001 14 333 4.8 8.0 0.00 0.00 0.00 76 971.1
20260508213902 14 323 4.8 8.0 0.00 0.00 0.00 76 971.1
20260508213803 14 325 4.8 8.0 0.00 0.00 0.00 76 971.2
20260508213702 14 314 3.2 8.0 0.00 0.00 0.00 76 971.1
20260508213601 14 323 3.2 8.0 0.00 0.00 0.00 76 971.1
20260508213505 14 323 3.2 6.4 0.00 0.00 0.00 76 971.1
20260508213401 15 320 3.2 6.4 0.00 0.00 0.00 75 971.1
20260508213303 15 326 3.2 8.0 0.00 0.00 0.00 75 971.1
20260508213202 15 329 3.2 8.0 0.00 0.00 0.00 74 971.0
20260508213104 15 330 3.2 8.0 0.00 0.00 0.00 74 971.0
20260508213003 15 322 3.2 8.0 0.00 0.00 0.00 74 971.0
20260508212906 15 330 3.2 8.0 0.00 0.00 0.00 73 971.0
20260508212804 15 317 3.2 8.0 0.00 0.00 0.00 72 971.0
20260508212702 15 328 3.2 8.0 0.00 0.00 0.00 72 971.0
20260508212604 15 331 3.2 8.0 0.00 0.00 0.00 72 971.0
20260508212502 15 2 3.2 8.0 0.00 0.00 0.00 70 971.0
20260508212404 15 24 3.2 8.0 0.00 0.00 0.00 71 971.1
20260508212306 15 317 3.2 8.0 0.00 0.00 0.00 68 971.0
20260508212203 15 329 1.6 8.0 0.00 0.00 0.00 69 971.0
20260508212105 16 323 1.6 6.4 0.00 0.00 0.00 69 971.0
20260508212003 16 334 1.6 6.4 0.00 0.00 0.00 69 971.0
20260508211906 16 330 0.0 3.2 0.00 0.00 0.00 68 971.0
20260508211803 16 330 0.0 3.2 0.00 0.00 0.00 68 971.0
20260508211701 16 184 0.0 1.6 0.00 0.00 0.00 67 971.0
20260508211602 16 184 0.0 1.6 0.00 0.00 0.00 67 970.8
20260508211501 16 184 0.0 1.6 0.00 0.00 0.00 67 970.9
20260508211402 16 184 0.0 1.6 0.00 0.00 0.00 67 970.9
20260508211301 16 184 0.0 1.6 0.00 0.00 0.00 67 970.9
20260508211202 16 184 1.6 1.6 0.00 0.00 0.00 67 970.9
20260508211102 16 184 1.6 1.6 0.00 0.00 0.00 68 970.9
20260508211002 16 184 1.6 1.6 0.00 0.00 0.00 66 970.9
20260508210903 16 184 1.6 1.6 0.00 0.00 0.00 67 970.9
20260508210807 16 184 1.6 3.2 0.00 0.00 0.00 68 970.8
20260508210704 16 184 1.6 3.2 0.00 0.00 0.00 67 970.8
20260508210607 16 184 1.6 3.2 0.00 0.00 0.00 68 970.9
20260508210503 16 184 1.6 4.8 0.00 0.00 0.00 65 970.8
20260508210403 16 184 1.6 6.4 0.00 0.00 0.00 64 970.9
20260508210303 16 184 1.6 6.4 0.00 0.00 0.00 64 971.0
20260508210201 16 184 1.6 6.4 0.00 0.00 0.00 64 971.0
20260508210103 16 184 1.6 6.4 0.00 0.00 0.00 64 971.0
20260508210004 16 184 1.6 6.4 0.00 0.00 0.00 64 971.0
20260508205903 16 184 1.6 6.4 0.00 0.00 0.00 64 971.0
20260508205800 16 184 3.2 6.4 0.00 0.00 0.00 64 971.1
20260508205657 16 184 3.2 6.4 0.00 0.00 0.00 63 971.1
20260508205554 16 243 3.2 6.4 0.00 0.00 0.00 63 971.1
20260508205454 16 203 3.2 12.9 0.00 0.00 0.00 63 971.1
20260508205352 16 221 3.2 12.9 0.00 0.00 0.00 64 971.2
20260508205256 16 221 3.2 12.9 0.00 0.00 0.00 65 971.2
20260508205150 16 221 3.2 12.9 0.00 0.00 0.00 64 971.2
20260508205046 16 221 3.2 12.9 0.00 0.00 0.00 63 971.2
20260508204947 16 221 3.2 12.9 0.00 0.00 0.00 62 971.2
20260508204849 16 225 3.2 12.9 0.00 0.00 0.00 62 971.3
20260508204748 16 225 3.2 12.9 0.00 0.00 0.00 63 971.2
20260508204645 16 232 3.2 12.9 0.00 0.00 0.00 62 971.2
20260508204545 16 215 4.8 12.9 0.00 0.00 0.00 62 971.3
20260508204443 16 262 4.8 12.9 0.00 0.00 0.00 61 971.3
20260508204344 16 276 4.8 12.9 0.00 0.00 0.00 61 971.3
20260508204242 16 208 4.8 12.9 0.00 0.00 0.00 61 971.4
20260508204139 16 209 6.4 12.9 0.00 0.00 0.00 61 971.4
20260508204035 16 276 6.4 12.9 0.00 0.00 0.00 61 971.4
20260508203937 16 230 6.4 12.9 0.00 0.00 0.00 61 971.4
20260508203836 16 264 6.4 12.9 0.00 0.00 0.00 60 971.4
20260508203736 16 240 8.0 14.5 0.00 0.00 0.00 59 971.4
20260508203636 16 238 8.0 16.1 0.00 0.00 0.00 59 971.4
20260508203533 16 248 9.7 22.5 0.00 0.00 0.00 59 971.4
20260508203434 16 265 11.3 22.5 0.00 0.00 0.00 58 971.5
20260508203334 16 231 11.3 22.5 0.00 0.00 0.00 58 971.4
20260508203233 16 224 12.9 22.5 0.00 0.00 0.00 57 971.5
20260508203133 16 247 12.9 27.4 0.00 0.00 0.00 58 971.5
20260508203035 16 179 14.5 27.4 0.00 0.00 0.00 57 971.4
20260508202935 16 214 14.5 27.4 0.00 0.00 0.00 56 971.5
20260508202837 16 278 14.5 27.4 0.00 0.00 0.00 55 971.4
20260508202731 16 241 14.5 27.4 0.00 0.00 0.00 55 971.5
20260508202633 16 233 14.5 27.4 0.00 0.00 0.00 55 971.5
20260508202530 16 269 12.9 27.4 0.00 0.00 0.00 56 971.4
20260508202431 16 233 12.9 27.4 0.00 0.00 0.00 55 971.4
20260508202332 16 225 12.9 27.4 0.00 0.00 0.00 56 971.4
20260508202231 16 240 11.3 27.4 0.00 0.00 0.00 56 971.4
20260508202133 16 243 11.3 27.4 0.00 0.00 0.00 59 971.4
20260508202031 16 226 11.3 20.9 0.00 0.00 0.00 58 971.5
20260508201933 16 221 9.7 20.9 0.00 0.00 0.00 57 971.6
20260508201828 16 231 9.7 19.3 0.00 0.00 0.00 57 971.6
20260508201732 17 241 9.7 19.3 0.00 0.00 0.00 57 971.6
20260508201633 17 238 8.0 19.3 0.00 0.00 0.00 58 971.6
20260508201532 17 250 8.0 19.3 0.00 0.00 0.00 58 971.6
20260508201428 17 212 8.0 19.3 0.00 0.00 0.00 58 971.6
20260508201323 17 250 8.0 19.3 0.00 0.00 0.00 57 971.6
20260508201223 17 186 8.0 19.3 0.00 0.00 0.00 59 971.7
20260508201125 17 205 6.4 19.3 0.00 0.00 0.00 57 971.8
20260508201024 17 193 6.4 16.1 0.00 0.00 0.00 60 971.8
20260508200924 17 210 8.0 16.1 0.00 0.00 0.00 59 971.8
20260508200820 17 234 8.0 16.1 0.00 0.00 0.00 60 971.8
20260508200721 17 216 8.0 16.1 0.00 0.00 0.00 61 971.8
20260508200622 17 228 8.0 16.1 0.00 0.00 0.00 59 971.9
20260508200520 17 245 8.0 16.1 0.00 0.00 0.00 58 971.9
20260508200415 17 229 8.0 16.1 0.00 0.00 0.00 58 971.9
20260508200314 17 219 8.0 16.1 0.00 0.00 0.00 58 971.9
20260508200211 17 271 8.0 16.1 0.00 0.00 0.00 58 971.9
20260508200112 17 235 8.0 14.5 0.00 0.00 0.00 58 971.9
20260508200012 17 247 6.4 14.5 0.00 0.00 0.00 58 971.8
20260508195905 17 176 6.4 14.5 0.00 0.00 0.00 58 971.8
20260508195805 17 215 6.4 14.5 0.00 0.00 0.00 60 971.9
20260508195706 17 226 6.4 14.5 0.00 0.00 0.00 59 971.9
20260508195609 17 214 6.4 14.5 0.00 0.00 0.00 58 971.9
20260508195505 17 233 6.4 14.5 0.00 0.00 0.00 58 971.9
20260508195404 17 245 6.4 17.7 0.00 0.00 0.00 58 971.9
20260508195306 17 247 6.4 17.7 0.00 0.00 0.00 58 971.9
20260508195202 17 247 8.0 17.7 0.00 0.00 0.00 58 971.9
20260508195103 17 258 8.0 17.7 0.00 0.00 0.00 58 971.9
20260508195002 17 216 8.0 17.7 0.00 0.00 0.00 58 971.9
20260508194902 17 225 8.0 17.7 0.00 0.00 0.00 58 971.9
20260508194806 17 217 8.0 17.7 0.00 0.00 0.00 57 971.9
20260508194705 17 204 8.0 17.7 0.00 0.00 0.00 57 971.9
20260508194604 17 242 8.0 17.7 0.00 0.00 0.00 57 971.9
20260508194503 17 286 8.0 17.7 0.00 0.00 0.00 57 971.9
20260508194406 17 224 8.0 17.7 0.00 0.00 0.00 57 971.9
20260508194305 17 240 8.0 17.7 0.00 0.00 0.00 57 972.0
20260508194202 17 266 8.0 17.7 0.00 0.00 0.00 58 971.9
20260508194105 17 256 8.0 17.7 0.00 0.00 0.00 57 972.0
20260508194003 17 264 8.0 17.7 0.00 0.00 0.00 57 972.0
20260508193903 17 214 8.0 17.7 0.00 0.00 0.00 57 972.0
20260508193806 17 269 8.0 17.7 0.00 0.00 0.00 57 972.0
20260508193705 17 257 8.0 16.1 0.00 0.00 0.00 57 972.0
20260508193603 17 223 8.0 16.1 0.00 0.00 0.00 57 972.0
20260508193502 17 262 8.0 19.3 0.00 0.00 0.00 56 972.1
20260508193402 17 237 9.7 27.4 0.00 0.00 0.00 57 972.1
20260508193301 17 258 9.7 27.4 0.00 0.00 0.00 57 972.1
20260508193202 17 264 9.7 27.4 0.00 0.00 0.00 57 972.1
20260508193102 17 257 9.7 27.4 0.00 0.00 0.00 56 972.1
20260508193001 17 243 9.7 27.4 0.00 0.00 0.00 56 972.1
20260508192904 17 239 8.0 27.4 0.00 0.00 0.00 57 972.1
20260508192803 17 217 8.0 27.4 0.00 0.00 0.00 56 972.1
20260508192702 17 257 8.0 27.4 0.00 0.00 0.00 55 972.1
20260508192602 17 233 8.0 27.4 0.00 0.00 0.00 56 972.1
20260508192501 17 250 8.0 27.4 0.00 0.00 0.00 56 972.1
20260508192402 17 273 8.0 27.4 0.00 0.00 0.00 57 972.1
20260508192305 17 272 8.0 19.3 0.00 0.00 0.00 56 972.2
20260508192205 17 243 8.0 19.3 0.00 0.00 0.00 57 972.2
20260508192106 17 246 8.0 19.3 0.00 0.00 0.00 57 972.1
20260508192001 17 248 9.7 19.3 0.00 0.00 0.00 58 972.1
20260508191901 17 274 9.7 19.3 0.00 0.00 0.00 57 972.2
20260508191801 17 248 9.7 19.3 0.00 0.00 0.00 57 972.1
20260508191703 17 219 11.3 19.3 0.00 0.00 0.00 56 972.2
20260508191603 17 244 9.7 19.3 0.00 0.00 0.00 56 972.1
20260508191458 17 243 11.3 19.3 0.00 0.00 0.00 56 972.2
20260508191354 17 243 11.3 19.3 0.00 0.00 0.00 56 972.2
20260508191258 17 233 11.3 19.3 0.00 0.00 0.00 56 972.2
20260508191155 17 243 11.3 19.3 0.00 0.00 0.00 55 972.2
20260508191056 17 254 9.7 19.3 0.00 0.00 0.00 56 972.2
20260508190948 17 258 9.7 22.5 0.00 0.00 0.00 56 972.3
20260508190850 17 247 9.7 22.5 0.00 0.00 0.00 56 972.3
20260508190749 17 237 11.3 24.1 0.00 0.00 0.00 56 972.3
20260508190650 17 288 11.3 24.1 0.00 0.00 0.00 56 972.3
20260508190549 17 243 11.3 24.1 0.00 0.00 0.00 56 972.3
20260508190447 17 255 11.3 24.1 0.00 0.00 0.00 56 972.3
20260508190343 17 266 11.3 24.1 0.00 0.00 0.00 55 972.3
20260508190245 17 210 11.3 24.1 0.00 0.00 0.00 55 972.4
20260508190143 17 229 11.3 24.1 0.00 0.00 0.00 56 972.3
20260508190043 17 227 11.3 24.1 0.00 0.00 0.00 56 972.3
20260508185938 17 200 11.3 24.1 0.00 0.00 0.00 56 972.4
20260508185837 17 219 11.3 24.1 0.00 0.00 0.00 54 972.3
20260508185737 17 249 11.3 19.3 0.00 0.00 0.00 55 972.4
20260508185636 17 242 11.3 19.3 0.00 0.00 0.00 55 972.3
20260508185539 17 233 9.7 22.5 0.00 0.00 0.00 55 972.3
20260508185431 17 258 9.7 22.5 0.00 0.00 0.00 56 972.3
20260508185330 17 222 11.3 22.5 0.00 0.00 0.00 56 972.3
20260508185231 17 258 11.3 22.5 0.00 0.00 0.00 57 972.2
20260508185132 17 198 12.9 22.5 0.00 0.00 0.00 55 972.2
20260508185033 17 279 12.9 30.6 0.00 0.00 0.00 57 972.2
20260508184932 17 271 14.5 30.6 0.00 0.00 0.00 56 972.3
20260508184833 17 240 14.5 30.6 0.00 0.00 0.00 55 972.3
20260508184737 17 205 14.5 30.6 0.00 0.00 0.00 55 972.3
20260508184631 17 219 14.5 30.6 0.00 0.00 0.00 55 972.3
20260508184532 17 245 14.5 30.6 0.00 0.00 0.00 56 972.3
20260508184431 17 231 16.1 30.6 0.00 0.00 0.00 54 972.3
20260508184332 17 251 14.5 30.6 0.00 0.00 0.00 55 972.3
20260508184231 17 238 14.5 30.6 0.00 0.00 0.00 53 972.3
20260508184132 17 198 14.5 30.6 0.00 0.00 0.00 53 972.4
20260508184033 17 230 14.5 33.8 0.00 0.00 0.00 53 972.4
20260508183933 17 219 16.1 33.8 0.00 0.00 0.00 54 972.4
20260508183832 17 243 16.1 33.8 0.00 0.00 0.00 54 972.4
20260508183731 17 262 16.1 33.8 0.00 0.00 0.00 54 972.4
20260508183630 17 210 16.1 33.8 0.00 0.00 0.00 54 972.4
20260508183529 18 217 16.1 33.8 0.00 0.00 0.00 54 972.4
20260508183431 18 189 16.1 33.8 0.00 0.00 0.00 56 972.4
20260508183330 18 212 16.1 33.8 0.00 0.00 0.00 54 972.4
20260508183231 18 265 17.7 33.8 0.00 0.00 0.00 54 972.5
20260508183130 18 247 17.7 33.8 0.00 0.00 0.00 52 972.5
20260508183033 18 161 17.7 30.6 0.00 0.00 0.00 53 972.4
20260508182933 18 235 16.1 30.6 0.00 0.00 0.00 54 972.5
20260508182830 18 236 16.1 30.6 0.00 0.00 0.00 55 972.4
20260508182731 18 183 14.5 30.6 0.00 0.00 0.00 55 972.5
20260508182632 18 238 16.1 30.6 0.00 0.00 0.00 55 972.4
20260508182531 18 245 16.1 30.6 0.00 0.00 0.00 55 972.4
20260508182431 18 229 14.5 30.6 0.00 0.00 0.00 54 972.4
20260508182332 18 226 14.5 30.6 0.00 0.00 0.00 54 972.4
20260508182230 18 230 14.5 30.6 0.00 0.00 0.00 53 972.4
20260508182133 18 247 14.5 30.6 0.00 0.00 0.00 54 972.4
20260508182031 18 215 14.5 30.6 0.00 0.00 0.00 54 972.4
20260508181931 18 256 14.5 30.6 0.00 0.00 0.00 53 972.4
20260508181830 18 233 16.1 30.6 0.00 0.00 0.00 54 972.5
20260508181730 18 274 16.1 30.6 0.00 0.00 0.00 52 972.5
20260508181631 18 216 16.1 30.6 0.00 0.00 0.00 51 972.5
20260508181527 18 226 16.1 30.6 0.00 0.00 0.00 53 972.4
20260508181424 18 229 16.1 30.6 0.00 0.00 0.00 52 972.5
20260508181324 18 271 17.7 30.6 0.00 0.00 0.00 53 972.5
20260508181223 18 255 17.7 30.6 0.00 0.00 0.00 52 972.5
20260508181126 18 225 17.7 30.6 0.00 0.00 0.00 52 972.5
20260508181020 18 286 17.7 30.6 0.00 0.00 0.00 52 972.5
20260508180919 18 271 16.1 30.6 0.00 0.00 0.00 52 972.5
20260508180816 18 233 16.1 30.6 0.00 0.00 0.00 52 972.4
20260508180718 18 231 16.1 30.6 0.00 0.00 0.00 52 972.4
20260508180619 18 265 16.1 30.6 0.00 0.00 0.00 51 972.4
20260508180512 18 244 14.5 27.4 0.00 0.00 0.00 52 972.4
20260508180412 18 231 14.5 27.4 0.00 0.00 0.00 52 972.4
20260508180311 18 171 14.5 27.4 0.00 0.00 0.00 52 972.4
20260508180212 18 217 14.5 27.4 0.00 0.00 0.00 52 972.3
20260508180113 18 237 14.5 30.6 0.00 0.00 0.00 53 972.3
20260508180005 18 225 14.5 30.6 0.00 0.00 0.00 54 972.4
20260508175905 18 226 14.5 30.6 0.00 0.00 0.00 55 972.4
20260508175804 18 241 14.5 30.6 0.00 0.00 0.00 52 972.4
20260508175708 18 202 14.5 30.6 0.00 0.00 0.00 53 972.4
20260508175606 18 236 14.5 30.6 0.00 0.00 0.00 53 972.4
20260508175504 18 260 14.5 30.6 0.00 0.00 0.00 54 972.4
20260508175403 18 229 14.5 30.6 0.00 0.00 0.00 53 972.4
20260508175305 18 238 14.5 30.6 0.00 0.00 0.00 52 972.5
20260508175202 18 226 14.5 30.6 0.00 0.00 0.00 52 972.4
20260508175102 18 228 14.5 29.0 0.00 0.00 0.00 55 972.5
20260508175002 18 227 14.5 29.0 0.00 0.00 0.00 58 972.4
20260508174901 18 203 14.5 29.0 0.00 0.00 0.00 55 972.4
20260508174803 18 166 14.5 29.0 0.00 0.00 0.00 54 972.5
20260508174701 18 216 12.9 29.0 0.00 0.00 0.00 56 972.5
20260508174602 18 246 12.9 29.0 0.00 0.00 0.00 56 972.5
20260508174404 18 206 12.9 25.7 0.00 0.00 0.00 54 972.5
20260508174314 17 239 12.9 25.7 0.00 0.00 0.00 54 972.6
20260508174201 17 237 12.9 25.7 0.00 0.00 0.00 55 972.6
20260508174102 17 210 12.9 25.7 0.00 0.00 0.00 55 972.6
20260508174002 17 221 11.3 24.1 0.00 0.00 0.00 56 972.7
20260508173905 17 214 11.3 24.1 0.00 0.00 0.00 57 972.7
20260508173758 17 271 12.9 24.1 0.00 0.00 0.00 55 972.7
20260508173659 17 205 14.5 29.0 0.00 0.00 0.00 57 972.7
20260508173600 17 205 14.5 29.0 0.00 0.00 0.00 55 972.7
20260508173459 17 207 14.5 29.0 0.00 0.00 0.00 55 972.8
20260508173359 17 200 14.5 29.0 0.00 0.00 0.00 55 972.8
20260508173257 17 216 16.1 29.0 0.00 0.00 0.00 56 972.8
20260508173155 17 214 16.1 29.0 0.00 0.00 0.00 56 972.9
20260508173057 17 207 17.7 30.6 0.00 0.00 0.00 56 972.9
20260508172958 17 253 17.7 30.6 0.00 0.00 0.00 54 972.9
20260508172857 17 243 17.7 30.6 0.00 0.00 0.00 54 973.0
20260508172747 17 221 17.7 30.6 0.00 0.00 0.00 52 973.0
20260508172648 17 219 17.7 30.6 0.00 0.00 0.00 53 973.1
20260508172553 17 210 17.7 30.6 0.00 0.00 0.00 53 973.1
20260508172447 17 224 17.7 30.6 0.00 0.00 0.00 53 973.1
20260508172349 17 252 17.7 30.6 0.00 0.00 0.00 55 973.1
20260508172319 17 201 17.7 30.6 0.00 0.00 0.00 53 973.1
20260508172146 17 200 16.1 30.6 0.00 0.00 0.00 53 973.1
20260508172047 17 232 16.1 29.0 0.00 0.00 0.00 53 973.1
20260508171948 17 240 16.1 29.0 0.00 0.00 0.00 57 973.1
20260508171850 17 194 16.1 29.0 0.00 0.00 0.00 57 973.2
20260508171742 17 262 14.5 29.0 0.00 0.00 0.00 57 973.2
20260508171643 17 221 14.5 27.4 0.00 0.00 0.00 57 973.1
20260508171543 17 222 14.5 27.4 0.00 0.00 0.00 57 973.1
20260508171446 17 257 14.5 27.4 0.00 0.00 0.00 54 973.2
20260508171343 17 274 14.5 27.4 0.00 0.00 0.00 53 973.2
20260508171244 17 239 14.5 27.4 0.00 0.00 0.00 54 973.2
20260508171147 17 200 14.5 27.4 0.00 0.00 0.00 53 973.3
20260508171042 17 219 12.9 27.4 0.00 0.00 0.00 53 973.3
20260508170945 17 250 12.9 27.4 0.00 0.00 0.00 53 973.3
20260508170842 17 252 12.9 27.4 0.00 0.00 0.00 55 973.3
20260508170742 17 213 12.9 27.4 0.00 0.00 0.00 54 973.3
20260508170644 17 239 12.9 24.1 0.00 0.00 0.00 53 973.3
20260508170537 17 228 12.9 22.5 0.00 0.00 0.00 55 973.4
20260508170437 17 203 12.9 24.1 0.00 0.00 0.00 55 973.4
20260508170336 17 230 12.9 24.1 0.00 0.00 0.00 54 973.5
20260508170236 17 231 11.3 24.1 0.00 0.00 0.00 55 973.4
20260508170141 17 203 11.3 24.1 0.00 0.00 0.00 57 973.5
20260508170038 17 217 12.9 24.1 0.00 0.00 0.00 55 973.5
20260508165935 17 242 12.9 24.1 0.00 0.00 0.00 54 973.6
20260508165836 17 221 12.9 24.1 0.00 0.00 0.00 54 973.5
20260508165733 16 218 12.9 24.1 0.00 0.00 0.00 55 973.6
20260508165632 16 240 12.9 24.1 0.00 0.00 0.00 55 973.6
20260508165534 16 198 11.3 24.1 0.00 0.00 0.00 55 973.6
20260508165432 16 184 11.3 24.1 0.00 0.00 0.00 56 973.6
20260508165332 16 226 11.3 24.1 0.00 0.00 0.00 55 973.6
20260508165234 16 260 12.9 24.1 0.00 0.00 0.00 55 973.6
20260508165133 16 188 12.9 24.1 0.00 0.00 0.00 54 973.7
20260508165029 16 224 12.9 25.7 0.00 0.00 0.00 55 973.7
20260508164932 16 205 12.9 25.7 0.00 0.00 0.00 54 973.7
20260508164832 16 221 11.3 25.7 0.00 0.00 0.00 55 973.7
20260508164730 16 227 11.3 25.7 0.00 0.00 0.00 55 973.7
20260508164630 16 217 11.3 25.7 0.00 0.00 0.00 55 973.8
20260508164531 16 212 11.3 25.7 0.00 0.00 0.00 56 973.8
20260508164432 16 217 11.3 25.7 0.00 0.00 0.00 55 973.8
20260508164331 16 179 9.7 25.7 0.00 0.00 0.00 55 973.8
20260508164230 16 257 9.7 25.7 0.00 0.00 0.00 56 973.8
20260508164128 16 245 9.7 25.7 0.00 0.00 0.00 57 973.9
20260508164031 16 217 9.7 22.5 0.00 0.00 0.00 57 973.8
20260508163929 16 216 9.7 22.5 0.00 0.00 0.00 56 973.8
20260508163830 16 263 9.7 22.5 0.00 0.00 0.00 56 973.8
20260508163729 16 219 9.7 22.5 0.00 0.00 0.00 56 973.9
20260508163629 16 252 9.7 22.5 0.00 0.00 0.00 56 973.8
20260508163529 16 234 11.3 22.5 0.00 0.00 0.00 56 973.9
20260508163428 16 236 11.3 22.5 0.00 0.00 0.00 56 973.9
20260508163332 16 258 11.3 22.5 0.00 0.00 0.00 56 973.9
20260508163231 16 203 11.3 22.5 0.00 0.00 0.00 55 974.0
20260508163128 16 259 11.3 22.5 0.00 0.00 0.00 56 974.0
20260508163027 16 240 12.9 22.5 0.00 0.00 0.00 54 974.0
20260508162922 16 247 12.9 22.5 0.00 0.00 0.00 55 974.0
20260508162823 16 241 12.9 22.5 0.00 0.00 0.00 54 974.0
20260508162723 16 269 12.9 24.1 0.00 0.00 0.00 53 974.1
20260508162625 16 239 12.9 24.1 0.00 0.00 0.00 54 974.1
20260508162525 16 230 12.9 24.1 0.00 0.00 0.00 53 974.1
20260508162423 17 223 11.3 24.1 0.00 0.00 0.00 53 974.1
20260508162327 17 251 11.3 24.1 0.00 0.00 0.00 54 974.0
20260508162221 17 255 11.3 24.1 0.00 0.00 0.00 54 974.0
20260508162123 17 259 11.3 24.1 0.00 0.00 0.00 54 974.0
20260508162023 17 264 9.7 24.1 0.00 0.00 0.00 54 974.1
20260508161923 17 234 9.7 24.1 0.00 0.00 0.00 54 974.0
20260508161820 17 253 9.7 24.1 0.00 0.00 0.00 54 974.0
20260508161715 17 235 9.7 22.5 0.00 0.00 0.00 54 974.1
20260508161615 17 262 9.7 22.5 0.00 0.00 0.00 56 974.0
20260508161517 17 208 9.7 22.5 0.00 0.00 0.00 55 974.0
20260508161414 17 262 11.3 22.5 0.00 0.00 0.00 54 974.0
20260508161314 17 283 11.3 27.4 0.00 0.00 0.00 54 974.1
20260508161218 17 248 11.3 27.4 0.00 0.00 0.00 56 974.1
20260508161115 17 200 11.3 27.4 0.00 0.00 0.00 53 974.2
20260508161015 17 275 11.3 27.4 0.00 0.00 0.00 53 974.2
20260508160915 17 266 11.3 27.4 0.00 0.00 0.00 53 974.3
20260508160814 17 229 11.3 27.4 0.00 0.00 0.00 53 974.2
20260508160715 17 243 11.3 27.4 0.00 0.00 0.00 56 974.2
20260508160613 17 207 11.3 27.4 0.00 0.00 0.00 57 974.3
20260508160515 17 220 11.3 27.4 0.00 0.00 0.00 56 974.2
20260508160415 17 198 11.3 27.4 0.00 0.00 0.00 57 974.2
20260508160314 17 253 11.3 22.5 0.00 0.00 0.00 61 974.2
20260508160215 16 193 11.3 24.1 0.00 0.00 0.00 57 974.2
20260508160115 16 224 12.9 24.1 0.00 0.00 0.00 56 974.2
20260508160012 16 213 12.9 24.1 0.00 0.00 0.00 56 974.3
20260508155910 16 227 12.9 24.1 0.00 0.00 0.00 55 974.2
20260508155810 16 242 12.9 24.1 0.00 0.00 0.00 55 974.3
20260508155709 16 210 12.9 24.1 0.00 0.00 0.00 57 974.3
20260508155609 16 216 11.3 24.1 0.00 0.00 0.00 56 974.3
20260508155509 16 217 12.9 24.1 0.00 0.00 0.00 55 974.3
20260508155409 16 206 11.3 24.1 0.00 0.00 0.00 57 974.4
20260508155308 16 248 11.3 24.1 0.00 0.00 0.00 57 974.3
20260508155208 16 191 11.3 22.5 0.00 0.00 0.00 55 974.4
20260508155107 16 229 9.7 22.5 0.00 0.00 0.00 56 974.4
20260508155008 16 284 9.7 22.5 0.00 0.00 0.00 57 974.4
20260508154911 16 237 9.7 22.5 0.00 0.00 0.00 57 974.4
20260508154802 16 198 9.7 17.7 0.00 0.00 0.00 57 974.4
20260508154701 16 267 9.7 22.5 0.00 0.00 0.00 57 974.4
20260508154602 16 210 9.7 22.5 0.00 0.00 0.00 56 974.4
20260508154503 16 224 9.7 22.5 0.00 0.00 0.00 57 974.4
20260508154404 16 235 9.7 22.5 0.00 0.00 0.00 56 974.5
20260508154302 16 309 9.7 22.5 0.00 0.00 0.00 57 974.4
20260508154201 16 276 9.7 22.5 0.00 0.00 0.00 56 974.5
20260508154102 16 264 11.3 22.5 0.00 0.00 0.00 56 974.5
20260508154002 16 264 11.3 22.5 0.00 0.00 0.00 56 974.4
20260508153904 16 243 11.3 22.5 0.00 0.00 0.00 55 974.5
20260508153803 16 262 9.7 22.5 0.00 0.00 0.00 56 974.5
20260508153703 16 259 9.7 20.9 0.00 0.00 0.00 59 974.4
20260508153602 16 279 11.3 20.9 0.00 0.00 0.00 57 974.5
20260508153502 16 273 11.3 20.9 0.00 0.00 0.00 56 974.4
20260508153402 16 266 11.3 20.9 0.00 0.00 0.00 55 974.4
20260508153301 16 242 11.3 20.9 0.00 0.00 0.00 55 974.4
20260508153202 16 191 11.3 24.1 0.00 0.00 0.00 55 974.4
20260508153105 16 171 11.3 24.1 0.00 0.00 0.00 56 974.4
20260508153002 16 279 11.3 24.1 0.00 0.00 0.00 56 974.4
20260508152900 16 278 11.3 24.1 0.00 0.00 0.00 58 974.4
20260508152800 16 252 11.3 24.1 0.00 0.00 0.00 55 974.4
20260508152704 16 278 11.3 24.1 0.00 0.00 0.00 57 974.4
20260508152602 16 269 11.3 24.1 0.00 0.00 0.00 57 974.4
20260508152500 16 274 11.3 24.1 0.00 0.00 0.00 57 974.4
20260508152400 16 245 11.3 24.1 0.00 0.00 0.00 56 974.4
20260508152301 16 260 11.3 24.1 0.00 0.00 0.00 58 974.4
20260508152200 16 273 11.3 19.3 0.00 0.00 0.00 59 974.4
20260508152100 16 212 11.3 22.5 0.00 0.00 0.00 58 974.4
20260508151959 16 225 11.3 22.5 0.00 0.00 0.00 57 974.4
20260508151900 16 245 11.3 22.5 0.00 0.00 0.00 57 974.4
20260508151759 16 278 11.3 22.5 0.00 0.00 0.00 57 974.4
20260508151600 16 269 11.3 22.5 0.00 0.00 0.00 56 974.4
20260508151502 16 245 11.3 22.5 0.00 0.00 0.00 57 974.4
20260508151401 16 241 9.7 22.5 0.00 0.00 0.00 61 974.4
20260508151300 16 244 9.7 22.5 0.00 0.00 0.00 58 974.4
20260508151201 15 267 11.3 22.5 0.00 0.00 0.00 57 974.4
20260508151103 15 263 11.3 25.7 0.00 0.00 0.00 58 974.4
20260508151000 15 235 11.3 25.7 0.00 0.00 0.00 59 974.4
20260508150903 15 236 9.7 25.7 0.00 0.00 0.00 59 974.4
20260508150801 15 215 9.7 25.7 0.00 0.00 0.00 59 974.4
20260508150701 15 210 9.7 25.7 0.00 0.00 0.00 60 974.5
20260508150558 15 211 9.7 25.7 0.00 0.00 0.00 59 974.4
20260508150503 15 253 8.0 25.7 0.00 0.00 0.00 60 974.4
20260508150359 15 274 9.7 25.7 0.00 0.00 0.00 59 974.5
20260508150259 15 248 9.7 25.7 0.00 0.00 0.00 57 974.4
20260508150159 15 278 9.7 25.7 0.00 0.00 0.00 59 974.4
20260508150058 15 249 9.7 19.3 0.00 0.00 0.00 59 974.5
20260508150002 15 220 9.7 19.3 0.00 0.00 0.00 61 974.4
20260508145858 15 270 9.7 19.3 0.00 0.00 0.00 60 974.4
20260508145758 15 255 11.3 24.1 0.00 0.00 0.00 60 974.4
20260508145659 15 255 11.3 24.1 0.00 0.00 0.00 59 974.4
20260508145558 15 243 11.3 24.1 0.00 0.00 0.00 60 974.4
20260508145500 15 223 12.9 24.1 0.00 0.00 0.00 59 974.5
20260508145359 15 227 12.9 30.6 0.00 0.00 0.00 58 974.5
20260508145306 15 212 12.9 30.6 0.00 0.00 0.00 57 974.4
20260508145202 15 278 12.9 30.6 0.00 0.00 0.00 58 974.4
20260508145059 15 221 12.9 30.6 0.00 0.00 0.00 57 974.5
20260508144958 15 268 12.9 30.6 0.00 0.00 0.00 58 974.5
20260508144855 15 280 12.9 30.6 0.00 0.00 0.00 58 974.5
20260508144756 15 281 12.9 30.6 0.00 0.00 0.00 58 974.5
20260508144654 15 212 12.9 30.6 0.00 0.00 0.00 57 974.5
20260508144555 15 172 11.3 30.6 0.00 0.00 0.00 58 974.5
20260508144455 14 252 11.3 30.6 0.00 0.00 0.00 58 974.6
20260508144355 14 229 11.3 20.9 0.00 0.00 0.00 60 974.6
20260508144254 14 187 11.3 20.9 0.00 0.00 0.00 59 974.7
20260508144156 14 269 11.3 22.5 0.00 0.00 0.00 58 974.7
20260508144054 14 279 11.3 22.5 0.00 0.00 0.00 60 974.7
20260508143954 14 250 11.3 22.5 0.00 0.00 0.00 60 974.7
20260508143854 14 255 11.3 22.5 0.00 0.00 0.00 60 974.6
20260508143754 14 248 12.9 22.5 0.00 0.00 0.00 59 974.7
20260508143653 14 249 12.9 22.5 0.00 0.00 0.00 60 974.7
20260508143556 14 262 12.9 29.0 0.00 0.00 0.00 58 974.7
20260508143455 14 233 14.5 29.0 0.00 0.00 0.00 58 974.7
20260508143354 14 229 14.5 29.0 0.00 0.00 0.00 58 974.7
20260508143255 14 180 14.5 29.0 0.00 0.00 0.00 59 974.7
20260508143152 14 206 12.9 29.0 0.00 0.00 0.00 59 974.7
20260508143050 14 162 12.9 29.0 0.00 0.00 0.00 58 974.7
20260508142952 14 213 12.9 29.0 0.00 0.00 0.00 59 974.8
20260508142855 14 185 12.9 29.0 0.00 0.00 0.00 59 974.8
20260508142753 14 239 12.9 29.0 0.00 0.00 0.00 59 974.9
20260508142651 14 249 12.9 29.0 0.00 0.00 0.00 59 974.8
20260508142552 14 222 11.3 25.7 0.00 0.00 0.00 59 974.8
20260508142455 14 232 11.3 25.7 0.00 0.00 0.00 59 974.8
20260508142350 14 223 11.3 25.7 0.00 0.00 0.00 61 974.9
20260508142250 14 281 11.3 25.7 0.00 0.00 0.00 61 974.9
20260508142150 14 248 11.3 25.7 0.00 0.00 0.00 60 974.8
20260508142049 14 281 11.3 25.7 0.00 0.00 0.00 61 974.9
20260508141953 13 205 11.3 25.7 0.00 0.00 0.00 59 974.8
20260508141852 14 208 9.7 25.7 0.00 0.00 0.00 59 974.8
20260508141750 14 259 9.7 25.7 0.00 0.00 0.00 60 974.9
20260508141650 14 239 9.7 20.9 0.00 0.00 0.00 60 974.8
20260508141552 14 246 9.7 20.9 0.00 0.00 0.00 60 974.9
20260508141451 13 258 9.7 20.9 0.00 0.00 0.00 61 974.9
20260508141350 13 195 9.7 22.5 0.00 0.00 0.00 61 974.9
20260508141247 13 221 9.7 22.5 0.00 0.00 0.00 60 975.0
20260508141148 13 275 9.7 22.5 0.00 0.00 0.00 60 975.0
20260508141047 13 246 9.7 22.5 0.00 0.00 0.00 63 975.0
20260508140949 13 269 9.7 22.5 0.00 0.00 0.00 63 975.0
20260508140846 13 269 9.7 22.5 0.00 0.00 0.00 62 974.9
20260508140748 13 232 11.3 22.5 0.00 0.00 0.00 61 974.9
20260508140647 13 249 9.7 22.5 0.00 0.00 0.00 59 974.9
20260508140548 13 229 9.7 22.5 0.00 0.00 0.00 59 974.9
20260508140445 13 209 9.7 17.7 0.00 0.00 0.00 60 974.9
20260508140346 13 225 9.7 17.7 0.00 0.00 0.00 61 974.9
20260508140247 13 223 9.7 17.7 0.00 0.00 0.00 60 974.9
20260508140146 13 243 9.7 17.7 0.00 0.00 0.00 61 974.9
20260508140046 13 231 9.7 17.7 0.00 0.00 0.00 60 974.9
20260508135952 13 281 9.7 17.7 0.00 0.00 0.00 62 975.0
20260508135851 13 262 9.7 17.7 0.00 0.00 0.00 60 975.0
20260508135747 13 221 9.7 17.7 0.00 0.00 0.00 61 975.0
20260508135648 13 221 9.7 17.7 0.00 0.00 0.00 64 975.0
20260508135548 12 219 9.7 17.7 0.00 0.00 0.00 61 975.1
20260508135449 12 250 8.0 17.7 0.00 0.00 0.00 61 975.1
20260508135345 12 271 8.0 16.1 0.00 0.00 0.00 60 975.1
20260508135243 12 271 8.0 16.1 0.00 0.00 0.00 60 975.1
20260508135142 13 252 6.4 16.1 0.00 0.00 0.00 59 975.1
20260508135042 13 269 6.4 16.1 0.00 0.00 0.00 59 975.1
20260508134945 13 282 8.0 16.1 0.00 0.00 0.00 60 975.2
20260508134842 13 241 8.0 20.9 0.00 0.00 0.00 60 975.1
20260508134744 13 268 8.0 20.9 0.00 0.00 0.00 61 975.1
20260508134643 13 253 8.0 20.9 0.00 0.00 0.00 61 975.1
20260508134542 12 250 8.0 20.9 0.00 0.00 0.00 62 975.1
20260508134444 12 208 8.0 20.9 0.00 0.00 0.00 62 975.1
20260508134343 12 227 9.7 20.9 0.00 0.00 0.00 63 975.1
20260508134242 12 258 9.7 20.9 0.00 0.00 0.00 63 975.2
20260508134141 12 268 9.7 20.9 0.00 0.00 0.00 62 975.2
20260508134042 12 233 9.7 20.9 0.00 0.00 0.00 61 975.2
20260508133943 12 180 9.7 20.9 0.00 0.00 0.00 60 975.2
20260508133844 12 178 9.7 19.3 0.00 0.00 0.00 59 975.1
20260508133742 12 288 9.7 17.7 0.00 0.00 0.00 60 975.2
20260508133642 12 243 9.7 17.7 0.00 0.00 0.00 59 975.3
20260508133545 12 217 9.7 17.7 0.00 0.00 0.00 62 975.2
20260508133441 12 223 9.7 17.7 0.00 0.00 0.00 61 975.1
20260508133339 12 271 9.7 17.7 0.00 0.00 0.00 60 975.1
20260508133240 12 237 8.0 17.7 0.00 0.00 0.00 61 975.1
20260508133140 12 242 8.0 16.1 0.00 0.00 0.00 60 975.1
20260508133040 12 219 8.0 16.1 0.00 0.00 0.00 61 975.0
20260508132936 12 262 8.0 17.7 0.00 0.00 0.00 60 975.1
20260508132838 12 236 8.0 17.7 0.00 0.00 0.00 62 975.1
20260508132735 12 221 8.0 17.7 0.00 0.00 0.00 62 975.0
20260508132634 12 269 8.0 17.7 0.00 0.00 0.00 60 975.1
20260508132535 12 165 8.0 17.7 0.00 0.00 0.00 60 975.1
20260508132434 12 207 8.0 17.7 0.00 0.00 0.00 61 975.1
20260508132335 12 240 8.0 17.7 0.00 0.00 0.00 61 975.0
20260508132236 12 259 8.0 17.7 0.00 0.00 0.00 61 975.1
20260508132134 12 224 8.0 17.7 0.00 0.00 0.00 60 975.0
20260508132035 12 249 8.0 17.7 0.00 0.00 0.00 61 975.0
20260508131936 12 225 8.0 16.1 0.00 0.00 0.00 60 975.0
20260508131833 12 281 8.0 14.5 0.00 0.00 0.00 60 975.0
20260508131732 12 278 8.0 14.5 0.00 0.00 0.00 60 975.0
20260508131634 12 262 6.4 14.5 0.00 0.00 0.00 60 975.0
20260508131531 12 234 6.4 14.5 0.00 0.00 0.00 60 975.0
20260508131432 12 193 6.4 14.5 0.00 0.00 0.00 61 975.0
20260508131332 12 246 6.4 14.5 0.00 0.00 0.00 60 975.0
20260508131231 12 239 6.4 14.5 0.00 0.00 0.00 61 975.0
20260508131132 12 208 6.4 12.9 0.00 0.00 0.00 62 975.0
20260508131033 12 262 6.4 12.9 0.00 0.00 0.00 63 975.0
20260508130931 12 191 6.4 12.9 0.00 0.00 0.00 62 975.0
20260508130830 12 214 6.4 14.5 0.00 0.00 0.00 62 975.0
20260508130733 11 267 6.4 14.5 0.00 0.00 0.00 64 975.0
20260508130632 11 207 6.4 14.5 0.00 0.00 0.00 62 975.0
20260508130531 11 197 8.0 14.5 0.00 0.00 0.00 64 975.0
20260508130430 11 169 8.0 14.5 0.00 0.00 0.00 64 975.0
20260508130330 11 236 8.0 14.5 0.00 0.00 0.00 63 975.1
20260508130231 11 232 8.0 14.5 0.00 0.00 0.00 65 975.1
20260508130221 10 224 9.7 20.9 0.00 0.00 0.00 60 974.7
20260508130216 10 240 6.4 12.9 0.00 0.00 0.00 63 975.2
20260508130211 8 208 4.8 9.7 0.00 0.00 0.00 79 975.1
20260508130205 8 203 4.8 6.4 0.00 0.00 0.00 80 975.2
20260508130159 10 259 8.0 16.1 0.00 0.00 0.00 62 974.9
20260508130150 10 245 8.0 16.1 0.00 0.00 0.00 62 974.9
20260508130144 10 231 8.0 16.1 0.00 0.00 0.00 62 974.8
20260508130137 10 222 8.0 16.1 0.00 0.00 0.00 62 974.8
20260508130130 11 266 8.0 14.5 0.00 0.00 0.00 65 975.0
20260508130125 10 224 8.0 16.1 0.00 0.00 0.00 62 974.8
20260508130118 10 238 6.4 16.1 0.00 0.00 0.00 62 974.7
20260508130112 10 291 6.4 16.1 0.00 0.00 0.00 62 974.8
20260508130106 10 233 6.4 14.5 0.00 0.00 0.00 62 974.8
20260508130054 10 219 6.4 14.5 0.00 0.00 0.00 62 974.8
20260508130049 10 222 6.4 14.5 0.00 0.00 0.00 62 974.8
20260508130042 10 205 6.4 14.5 0.00 0.00 0.00 62 974.8
20260508130038 10 209 6.4 14.5 0.00 0.00 0.00 62 974.8
20260508130032 11 203 6.4 14.5 0.00 0.00 0.00 64 975.1
20260508130025 10 234 6.4 14.5 0.00 0.00 0.00 62 974.9
20260508130019 10 217 6.4 14.5 0.00 0.00 0.00 62 974.8
20260508130014 10 238 6.4 12.9 0.00 0.00 0.00 62 974.9
20260508130008 10 226 6.4 14.5 0.00 0.00 0.00 62 974.9
20260508130003 10 188 6.4 14.5 0.00 0.00 0.00 62 974.9
20260508125959 10 240 6.4 14.5 0.00 0.00 0.00 62 974.9
20260508125953 10 244 6.4 14.5 0.00 0.00 0.00 62 974.9
20260508125949 10 220 6.4 14.5 0.00 0.00 0.00 62 974.9
20260508125943 10 221 6.4 14.5 0.00 0.00 0.00 62 974.8
20260508125938 10 238 6.4 14.5 0.00 0.00 0.00 62 974.9
20260508125931 11 214 6.4 14.5 0.00 0.00 0.00 65 975.0
20260508125925 10 230 6.4 14.5 0.00 0.00 0.00 61 974.8
20260508125920 10 231 6.4 14.5 0.00 0.00 0.00 62 974.8
20260508125914 10 208 6.4 14.5 0.00 0.00 0.00 61 974.9
20260508125908 10 241 6.4 16.1 0.00 0.00 0.00 61 974.9
20260508125903 10 226 6.4 16.1 0.00 0.00 0.00 61 974.9
20260508125855 10 250 6.4 16.1 0.00 0.00 0.00 61 974.9
20260508125846 10 233 6.4 16.1 0.00 0.00 0.00 62 974.9
20260508125839 10 223 6.4 16.1 0.00 0.00 0.00 61 974.9
20260508125833 11 226 6.4 11.3 0.00 0.00 0.00 66 975.1
20260508125826 10 205 6.4 16.1 0.00 0.00 0.00 61 974.9
20260508125820 10 283 6.4 16.1 0.00 0.00 0.00 61 974.8
20260508125815 10 216 6.4 16.1 0.00 0.00 0.00 61 974.8
20260508125805 10 224 6.4 16.1 0.00 0.00 0.00 61 974.8
20260508125758 10 225 6.4 16.1 0.00 0.00 0.00 61 974.8
20260508125749 10 191 8.0 20.9 0.00 0.00 0.00 61 974.8
20260508125742 10 219 8.0 20.9 0.00 0.00 0.00 62 974.8
20260508125735 10 229 8.0 20.9 0.00 0.00 0.00 61 974.8
20260508125730 11 212 6.4 11.3 0.00 0.00 0.00 66 975.1
20260508125725 10 242 8.0 20.9 0.00 0.00 0.00 61 974.9
20260508125716 10 206 6.4 20.9 0.00 0.00 0.00 61 974.9
20260508125712 10 229 8.0 20.9 0.00 0.00 0.00 61 974.9
20260508125702 10 244 8.0 20.9 0.00 0.00 0.00 61 974.9
20260508125655 10 267 8.0 20.9 0.00 0.00 0.00 61 974.8
20260508125644 10 231 8.0 20.9 0.00 0.00 0.00 61 974.8
20260508125637 10 217 8.0 20.9 0.00 0.00 0.00 61 974.8
20260508125630 11 224 6.4 11.3 0.00 0.00 0.00 66 975.1
20260508125623 10 243 8.0 20.9 0.00 0.00 0.00 61 974.8
20260508125617 10 221 8.0 20.9 0.00 0.00 0.00 61 974.8
20260508125605 10 248 9.7 20.9 0.00 0.00 0.00 61 974.8
20260508125558 10 235 8.0 20.9 0.00 0.00 0.00 61 974.7
20260508125552 10 238 9.7 20.9 0.00 0.00 0.00 61 974.8
20260508125547 10 240 9.7 20.9 0.00 0.00 0.00 61 974.7
20260508125541 10 226 9.7 20.9 0.00 0.00 0.00 61 974.7
20260508125532 11 227 6.4 11.3 0.00 0.00 0.00 65 975.1
20260508125524 10 224 9.7 20.9 0.00 0.00 0.00 60 974.7
20260508125513 10 249 9.7 20.9 0.00 0.00 0.00 61 974.7
20260508125503 10 193 9.7 20.9 0.00 0.00 0.00 61 974.7
20260508125456 10 195 8.0 20.9 0.00 0.00 0.00 61 974.6
20260508125448 10 247 8.0 20.9 0.00 0.00 0.00 61 974.7
20260508125437 10 210 8.0 20.9 0.00 0.00 0.00 61 974.7
20260508125430 11 188 6.4 11.3 0.00 0.00 0.00 66 975.1
20260508125422 10 225 8.0 20.9 0.00 0.00 0.00 61 974.7
20260508125416 10 253 9.7 20.9 0.00 0.00 0.00 61 974.7
20260508125409 10 245 9.7 20.9 0.00 0.00 0.00 61 974.7
20260508125403 10 227 9.7 20.9 0.00 0.00 0.00 61 974.7
20260508125351 10 224 9.7 20.9 0.00 0.00 0.00 62 974.7
20260508125348 10 243 9.7 20.9 0.00 0.00 0.00 61 974.7
20260508125340 10 235 9.7 20.9 0.00 0.00 0.00 61 974.7
20260508125333 11 198 6.4 11.3 0.00 0.00 0.00 65 975.1
20260508125327 10 216 9.7 20.9 0.00 0.00 0.00 61 974.7
20260508125318 10 255 9.7 20.9 0.00 0.00 0.00 61 974.7
20260508125311 10 230 9.7 20.9 0.00 0.00 0.00 61 974.7
20260508125306 10 225 9.7 20.9 0.00 0.00 0.00 61 974.7
20260508125257 10 231 9.7 19.3 0.00 0.00 0.00 61 974.8
20260508125252 10 240 9.7 19.3 0.00 0.00 0.00 62 974.8
20260508125247 10 274 9.7 19.3 0.00 0.00 0.00 61 974.9
20260508125231 11 229 6.4 11.3 0.00 0.00 0.00 66 975.1
20260508125228 10 209 9.7 19.3 0.00 0.00 0.00 62 974.9
20260508125221 10 219 9.7 19.3 0.00 0.00 0.00 61 974.9
20260508125216 10 256 9.7 19.3 0.00 0.00 0.00 62 974.9
20260508125206 10 225 9.7 19.3 0.00 0.00 0.00 62 974.9
20260508125158 10 240 9.7 19.3 0.00 0.00 0.00 62 974.9
20260508125152 10 205 9.7 19.3 0.00 0.00 0.00 61 974.9
20260508125143 10 242 9.7 19.3 0.00 0.00 0.00 61 974.9
20260508125134 11 187 6.4 11.3 0.00 0.00 0.00 66 975.1
20260508125126 10 232 8.0 19.3 0.00 0.00 0.00 62 974.9
20260508125123 10 236 8.0 17.7 0.00 0.00 0.00 61 974.9
20260508125116 10 242 8.0 17.7 0.00 0.00 0.00 62 974.9
20260508125108 10 205 8.0 17.7 0.00 0.00 0.00 62 974.9
20260508125102 10 234 8.0 17.7 0.00 0.00 0.00 61 975.0
20260508125056 10 236 8.0 17.7 0.00 0.00 0.00 62 975.0
20260508125048 10 238 8.0 17.7 0.00 0.00 0.00 62 975.0
20260508125041 10 230 8.0 17.7 0.00 0.00 0.00 62 975.0
20260508125034 11 219 6.4 11.3 0.00 0.00 0.00 66 975.1
20260508125029 10 228 8.0 17.7 0.00 0.00 0.00 62 975.0
20260508125021 10 216 8.0 17.7 0.00 0.00 0.00 62 975.0
20260508125016 10 257 8.0 17.7 0.00 0.00 0.00 63 975.0
20260508125010 10 216 8.0 17.7 0.00 0.00 0.00 63 975.0
20260508125002 10 226 8.0 17.7 0.00 0.00 0.00 62 975.0
20260508124952 10 233 8.0 17.7 0.00 0.00 0.00 62 975.0
20260508124944 10 217 8.0 17.7 0.00 0.00 0.00 62 975.1
20260508124938 10 253 8.0 17.7 0.00 0.00 0.00 63 975.0
20260508124932 11 196 4.8 11.3 0.00 0.00 0.00 68 975.1
20260508124920 10 221 8.0 17.7 0.00 0.00 0.00 63 975.1
20260508124913 10 217 8.0 17.7 0.00 0.00 0.00 63 975.1
20260508124906 10 241 8.0 17.7 0.00 0.00 0.00 62 975.2
20260508124901 10 238 6.4 14.5 0.00 0.00 0.00 63 975.1
20260508124855 10 237 8.0 14.5 0.00 0.00 0.00 63 975.1
20260508124848 10 224 8.0 14.5 0.00 0.00 0.00 63 975.1
20260508124842 10 226 8.0 14.5 0.00 0.00 0.00 62 975.2
20260508124835 10 237 8.0 14.5 0.00 0.00 0.00 63 975.1
20260508124830 10 198 4.8 11.3 0.00 0.00 0.00 67 975.1
20260508124824 10 218 8.0 14.5 0.00 0.00 0.00 63 975.1
20260508124817 10 230 8.0 14.5 0.00 0.00 0.00 63 975.1
20260508124810 10 202 8.0 14.5 0.00 0.00 0.00 62 975.1
20260508124800 10 216 8.0 16.1 0.00 0.00 0.00 63 975.1
20260508124755 10 241 8.0 17.7 0.00 0.00 0.00 63 975.1
20260508124751 10 231 8.0 17.7 0.00 0.00 0.00 63 975.1
20260508124742 10 227 8.0 17.7 0.00 0.00 0.00 62 975.1
20260508124734 10 229 4.8 11.3 0.00 0.00 0.00 67 975.1
20260508124730 10 205 9.7 17.7 0.00 0.00 0.00 62 975.0
20260508124723 10 245 9.7 17.7 0.00 0.00 0.00 62 975.0
20260508124713 10 254 9.7 17.7 0.00 0.00 0.00 63 975.0
20260508124708 10 230 9.7 17.7 0.00 0.00 0.00 63 975.0
20260508124703 10 233 9.7 17.7 0.00 0.00 0.00 63 975.0
20260508124657 10 226 9.7 17.7 0.00 0.00 0.00 62 975.0
20260508124651 10 241 8.0 17.7 0.00 0.00 0.00 63 975.0
20260508124638 10 190 8.0 14.5 0.00 0.00 0.00 62 975.0
20260508124632 10 215 4.8 11.3 0.00 0.00 0.00 69 975.2
20260508124625 10 226 9.7 14.5 0.00 0.00 0.00 63 975.0
20260508124619 10 233 9.7 17.7 0.00 0.00 0.00 63 974.9
20260508124612 10 237 8.0 17.7 0.00 0.00 0.00 63 975.0
20260508124607 10 233 8.0 17.7 0.00 0.00 0.00 63 975.0
20260508124602 10 219 8.0 17.7 0.00 0.00 0.00 63 975.0
20260508124556 10 236 8.0 17.7 0.00 0.00 0.00 63 975.1
20260508124549 10 219 8.0 17.7 0.00 0.00 0.00 63 975.1
20260508124540 10 231 8.0 17.7 0.00 0.00 0.00 63 975.1
20260508124532 10 219 4.8 11.3 0.00 0.00 0.00 68 975.1
20260508124528 10 249 8.0 17.7 0.00 0.00 0.00 63 975.2
20260508124516 10 231 8.0 17.7 0.00 0.00 0.00 63 975.2
20260508124508 10 217 8.0 17.7 0.00 0.00 0.00 63 975.2
20260508124502 10 241 8.0 16.1 0.00 0.00 0.00 63 975.2
20260508124454 10 219 8.0 16.1 0.00 0.00 0.00 63 975.1
20260508124447 10 241 8.0 16.1 0.00 0.00 0.00 63 975.2
20260508124438 10 227 8.0 16.1 0.00 0.00 0.00 63 975.1
20260508124432 10 214 4.8 11.3 0.00 0.00 0.00 68 975.1
20260508124425 10 215 8.0 16.1 0.00 0.00 0.00 63 975.2
20260508124418 10 219 8.0 16.1 0.00 0.00 0.00 63 975.2
20260508124413 10 229 8.0 16.1 0.00 0.00 0.00 62 975.2
20260508124407 10 219 8.0 16.1 0.00 0.00 0.00 63 975.1
20260508124358 10 251 8.0 12.9 0.00 0.00 0.00 63 975.2
20260508124353 10 206 8.0 12.9 0.00 0.00 0.00 63 975.2
20260508124346 10 198 6.4 12.9 0.00 0.00 0.00 63 975.2
20260508124340 10 219 6.4 12.9 0.00 0.00 0.00 63 975.3
20260508124333 10 236 4.8 11.3 0.00 0.00 0.00 69 975.2
20260508124328 10 217 6.4 12.9 0.00 0.00 0.00 63 975.3
20260508124319 10 223 6.4 12.9 0.00 0.00 0.00 63 975.2
20260508124313 10 219 6.4 12.9 0.00 0.00 0.00 63 975.2
20260508124309 10 240 6.4 12.9 0.00 0.00 0.00 63 975.2
20260508124301 10 224 6.4 12.9 0.00 0.00 0.00 63 975.2
20260508124255 10 230 6.4 14.5 0.00 0.00 0.00 63 975.2
20260508124246 10 223 8.0 16.1 0.00 0.00 0.00 62 975.1
20260508124237 10 180 6.4 16.1 0.00 0.00 0.00 62 975.2
20260508124232 10 187 4.8 11.3 0.00 0.00 0.00 67 975.2
20260508124225 10 244 8.0 16.1 0.00 0.00 0.00 62 975.2
20260508124218 10 223 8.0 16.1 0.00 0.00 0.00 62 975.2
20260508124212 10 214 8.0 16.1 0.00 0.00 0.00 62 975.2
20260508124200 10 245 8.0 16.1 0.00 0.00 0.00 62 975.3
20260508124155 10 227 8.0 16.1 0.00 0.00 0.00 62 975.3
20260508124148 10 221 8.0 16.1 0.00 0.00 0.00 62 975.3
20260508124141 10 252 8.0 16.1 0.00 0.00 0.00 62 975.2
20260508124134 10 219 4.8 11.3 0.00 0.00 0.00 67 975.2
20260508124128 10 226 8.0 16.1 0.00 0.00 0.00 62 975.3
20260508124114 10 221 8.0 17.7 0.00 0.00 0.00 62 975.2
20260508124110 10 209 8.0 17.7 0.00 0.00 0.00 62 975.2
20260508124105 10 235 8.0 17.7 0.00 0.00 0.00 62 975.1
20260508124057 10 224 8.0 17.7 0.00 0.00 0.00 62 975.1
20260508124050 10 217 8.0 17.7 0.00 0.00 0.00 62 975.1
20260508124040 10 223 8.0 17.7 0.00 0.00 0.00 62 975.1
20260508124035 10 195 4.8 9.7 0.00 0.00 0.00 68 975.3
20260508124026 10 208 8.0 17.7 0.00 0.00 0.00 62 975.2
20260508124017 10 271 8.0 17.7 0.00 0.00 0.00 62 975.2
20260508124012 10 264 8.0 17.7 0.00 0.00 0.00 62 975.2
20260508124004 10 252 9.7 17.7 0.00 0.00 0.00 62 975.2
20260508123953 10 259 9.7 17.7 0.00 0.00 0.00 62 975.2
20260508123945 10 265 8.0 17.7 0.00 0.00 0.00 62 975.2
20260508123936 10 213 3.2 8.0 0.00 0.00 0.00 69 975.3
20260508123929 10 221 8.0 17.7 0.00 0.00 0.00 62 975.2
20260508123920 10 218 8.0 17.7 0.00 0.00 0.00 62 975.3
20260508123913 10 231 8.0 17.7 0.00 0.00 0.00 62 975.2
20260508123905 10 211 8.0 17.7 0.00 0.00 0.00 62 975.2
20260508123901 10 257 6.4 17.7 0.00 0.00 0.00 62 975.2
20260508123851 10 223 6.4 17.7 0.00 0.00 0.00 62 975.2
20260508123844 10 241 6.4 17.7 0.00 0.00 0.00 62 975.2
20260508123838 10 207 6.4 17.7 0.00 0.00 0.00 62 975.2
20260508123831 10 228 3.2 8.0 0.00 0.00 0.00 69 975.3
20260508123821 10 219 6.4 14.5 0.00 0.00 0.00 63 975.2
20260508123815 10 225 6.4 14.5 0.00 0.00 0.00 62 975.2
20260508123810 10 233 6.4 14.5 0.00 0.00 0.00 63 975.2
20260508123805 10 224 8.0 14.5 0.00 0.00 0.00 63 975.2
20260508123758 10 213 8.0 14.5 0.00 0.00 0.00 63 975.2
20260508123747 10 252 8.0 16.1 0.00 0.00 0.00 63 975.3
20260508123742 10 304 8.0 19.3 0.00 0.00 0.00 63 975.2
20260508123734 10 225 8.0 19.3 0.00 0.00 0.00 63 975.3
20260508123729 10 221 3.2 8.0 0.00 0.00 0.00 69 975.3
20260508123700 10 214 8.0 19.3 0.00 0.00 0.00 63 975.3
20260508123646 10 245 8.0 19.3 0.00 0.00 0.00 63 975.2
20260508123641 10 241 8.0 19.3 0.00 0.00 0.00 63 975.3
20260508123634 10 225 3.2 8.0 0.00 0.00 0.00 69 975.2
20260508123627 10 226 8.0 19.3 0.00 0.00 0.00 63 975.3
20260508123622 10 238 8.0 19.3 0.00 0.00 0.00 63 975.3
20260508123616 10 217 8.0 19.3 0.00 0.00 0.00 63 975.2
20260508123611 10 209 8.0 16.1 0.00 0.00 0.00 63 975.2
20260508123606 10 199 8.0 12.9 0.00 0.00 0.00 64 975.2
20260508123557 10 262 8.0 12.9 0.00 0.00 0.00 64 975.3
20260508123550 10 244 8.0 12.9 0.00 0.00 0.00 64 975.3
20260508123539 10 231 3.2 8.0 0.00 0.00 0.00 68 975.3
20260508123530 10 237 8.0 24.1 0.00 0.00 0.00 64 975.3
20260508123519 10 218 8.0 24.1 0.00 0.00 0.00 65 975.3
20260508123512 10 226 8.0 24.1 0.00 0.00 0.00 65 975.3
20260508123509 10 217 8.0 24.1 0.00 0.00 0.00 64 975.3
20260508123459 10 207 8.0 24.1 0.00 0.00 0.00 64 975.3
20260508123451 10 238 8.0 24.1 0.00 0.00 0.00 64 975.2
20260508123445 10 243 8.0 24.1 0.00 0.00 0.00 64 975.2
20260508123437 10 192 8.0 24.1 0.00 0.00 0.00 64 975.2
20260508123431 10 215 3.2 8.0 0.00 0.00 0.00 68 975.2
20260508123423 10 226 9.7 24.1 0.00 0.00 0.00 65 975.3
20260508123419 10 272 9.7 24.1 0.00 0.00 0.00 65 975.3
20260508123413 10 215 9.7 24.1 0.00 0.00 0.00 65 975.3
20260508123404 10 218 9.7 24.1 0.00 0.00 0.00 65 975.3
20260508123355 10 234 9.7 24.1 0.00 0.00 0.00 65 975.3
20260508123349 10 228 9.7 24.1 0.00 0.00 0.00 65 975.3
20260508123343 10 213 9.7 24.1 0.00 0.00 0.00 65 975.3
20260508123337 10 209 9.7 24.1 0.00 0.00 0.00 65 975.3
20260508123331 10 210 3.2 8.0 0.00 0.00 0.00 68 975.2
20260508123326 10 205 9.7 24.1 0.00 0.00 0.00 66 975.3
20260508123320 10 239 9.7 24.1 0.00 0.00 0.00 66 975.3
20260508123314 10 217 9.7 24.1 0.00 0.00 0.00 65 975.3
20260508123307 10 171 9.7 16.1 0.00 0.00 0.00 65 975.3
20260508123304 10 227 9.7 16.1 0.00 0.00 0.00 66 975.4
20260508123251 10 176 9.7 16.1 0.00 0.00 0.00 65 975.3
20260508123244 10 219 9.7 17.7 0.00 0.00 0.00 66 975.3
20260508123234 10 212 3.2 8.0 0.00 0.00 0.00 68 975.2
20260508123231 10 230 9.7 17.7 0.00 0.00 0.00 66 975.3
20260508123223 10 213 9.7 17.7 0.00 0.00 0.00 66 975.3
20260508123217 10 225 9.7 17.7 0.00 0.00 0.00 66 975.3
20260508123210 10 245 9.7 17.7 0.00 0.00 0.00 67 975.3
20260508123159 10 232 9.7 17.7 0.00 0.00 0.00 67 975.3
20260508123153 10 225 9.7 17.7 0.00 0.00 0.00 67 975.3
20260508123149 10 215 9.7 17.7 0.00 0.00 0.00 67 975.2
20260508123143 10 222 9.7 17.7 0.00 0.00 0.00 67 975.3
20260508123136 10 226 9.7 17.7 0.00 0.00 0.00 67 975.3
20260508123130 10 230 3.2 6.4 0.00 0.00 0.00 69 975.3
20260508123124 10 232 9.7 17.7 0.00 0.00 0.00 67 975.3
20260508123119 10 236 9.7 17.7 0.00 0.00 0.00 67 975.3
20260508123112 10 216 9.7 17.7 0.00 0.00 0.00 67 975.3
20260508123105 10 211 9.7 17.7 0.00 0.00 0.00 68 975.2
20260508123058 10 237 8.0 17.7 0.00 0.00 0.00 68 975.3
20260508123052 9 243 8.0 16.1 0.00 0.00 0.00 68 975.3
20260508123047 9 229 8.0 16.1 0.00 0.00 0.00 68 975.2
20260508123039 9 221 8.0 16.1 0.00 0.00 0.00 69 975.2
20260508123030 10 255 3.2 6.4 0.00 0.00 0.00 70 975.3
20260508123024 9 214 8.0 16.1 0.00 0.00 0.00 69 975.3
20260508123014 9 214 8.0 16.1 0.00 0.00 0.00 70 975.3
20260508123009 9 236 6.4 16.1 0.00 0.00 0.00 70 975.2
20260508122959 9 230 6.4 12.9 0.00 0.00 0.00 71 975.3
20260508122954 9 258 6.4 12.9 0.00 0.00 0.00 72 975.3
20260508122948 8 205 6.4 12.9 0.00 0.00 0.00 72 975.2
20260508122929 10 257 3.2 8.0 0.00 0.00 0.00 70 975.3
20260508122924 8 226 6.4 12.9 0.00 0.00 0.00 72 975.2
20260508122917 8 214 6.4 12.9 0.00 0.00 0.00 72 975.3
20260508122907 8 200 6.4 9.7 0.00 0.00 0.00 73 975.2
20260508122901 8 221 6.4 9.7 0.00 0.00 0.00 73 975.2
20260508122855 8 217 6.4 9.7 0.00 0.00 0.00 73 975.2
20260508122852 8 193 6.4 9.7 0.00 0.00 0.00 73 975.2
20260508122842 8 200 6.4 9.7 0.00 0.00 0.00 73 975.2
20260508122834 10 231 3.2 8.0 0.00 0.00 0.00 70 975.3
20260508122827 8 194 6.4 9.7 0.00 0.00 0.00 73 975.2
20260508122822 8 203 6.4 9.7 0.00 0.00 0.00 73 975.3
20260508122813 8 202 6.4 9.7 0.00 0.00 0.00 73 975.2
20260508122805 8 219 6.4 11.3 0.00 0.00 0.00 74 975.3
20260508122757 8 207 6.4 11.3 0.00 0.00 0.00 73 975.2
20260508122742 8 219 6.4 11.3 0.00 0.00 0.00 74 975.2
20260508122733 10 231 3.2 8.0 0.00 0.00 0.00 70 975.3
20260508122729 8 220 6.4 11.3 0.00 0.00 0.00 74 975.2
20260508122725 8 203 6.4 11.3 0.00 0.00 0.00 74 975.2
20260508122714 8 219 6.4 11.3 0.00 0.00 0.00 74 975.2
20260508122709 8 226 6.4 11.3 0.00 0.00 0.00 75 975.2
20260508122702 8 214 6.4 11.3 0.00 0.00 0.00 75 975.1
20260508122656 8 205 6.4 11.3 0.00 0.00 0.00 75 975.2
20260508122649 8 210 6.4 11.3 0.00 0.00 0.00 76 975.2
20260508122643 8 208 6.4 11.3 0.00 0.00 0.00 76 975.2
20260508122638 8 195 6.4 11.3 0.00 0.00 0.00 76 975.2
20260508122626 8 231 6.4 11.3 0.00 0.00 0.00 77 975.2
20260508122618 8 217 6.4 11.3 0.00 0.00 0.00 77 975.1
20260508122614 8 211 6.4 11.3 0.00 0.00 0.00 77 975.1
20260508122556 8 215 4.8 9.7 0.00 0.00 0.00 77 975.0
20260508122554 8 217 4.8 9.7 0.00 0.00 0.00 77 975.1
20260508122543 8 212 4.8 8.0 0.00 0.00 0.00 77 975.1
20260508122538 10 231 3.2 8.0 0.00 0.00 0.00 69 975.2
20260508122531 8 212 4.8 8.0 0.00 0.00 0.00 77 975.1
20260508122523 8 212 4.8 8.0 0.00 0.00 0.00 77 975.1
20260508122513 8 212 4.8 8.0 0.00 0.00 0.00 77 975.1
20260508122504 8 210 4.8 6.4 0.00 0.00 0.00 77 975.1
20260508122457 8 212 4.8 6.4 0.00 0.00 0.00 77 975.1
20260508122450 8 212 4.8 8.0 0.00 0.00 0.00 77 975.1
20260508122444 8 212 4.8 8.0 0.00 0.00 0.00 77 975.1
20260508122438 8 212 4.8 8.0 0.00 0.00 0.00 77 975.1
20260508122432 10 221 3.2 8.0 0.00 0.00 0.00 70 975.2
20260508122423 8 211 4.8 8.0 0.00 0.00 0.00 77 975.2
20260508122418 8 211 4.8 8.0 0.00 0.00 0.00 77 975.1
20260508122408 8 212 4.8 8.0 0.00 0.00 0.00 77 975.1
20260508122401 8 211 4.8 8.0 0.00 0.00 0.00 77 975.1
20260508122352 8 211 4.8 8.0 0.00 0.00 0.00 77 975.1
20260508122342 8 211 4.8 8.0 0.00 0.00 0.00 77 975.1
20260508122333 10 222 3.2 8.0 0.00 0.00 0.00 70 975.1
20260508122329 8 211 4.8 8.0 0.00 0.00 0.00 77 975.1
20260508122320 8 210 4.8 6.4 0.00 0.00 0.00 76 975.1
20260508122313 8 210 4.8 6.4 0.00 0.00 0.00 76 975.1
20260508122307 8 210 3.2 6.4 0.00 0.00 0.00 77 975.1
20260508122255 8 210 3.2 6.4 0.00 0.00 0.00 77 975.1
20260508122247 8 210 3.2 6.4 0.00 0.00 0.00 77 975.1
20260508122240 8 210 3.2 6.4 0.00 0.00 0.00 77 975.1
20260508122234 10 222 3.2 8.0 0.00 0.00 0.00 70 975.1
20260508122227 8 210 3.2 6.4 0.00 0.00 0.00 77 975.1
20260508122220 8 210 3.2 6.4 0.00 0.00 0.00 77 975.1
20260508122212 8 210 4.8 6.4 0.00 0.00 0.00 77 975.1
20260508122205 8 210 4.8 6.4 0.00 0.00 0.00 77 975.1
20260508122159 8 210 4.8 6.4 0.00 0.00 0.00 77 975.1
20260508122151 8 210 4.8 6.4 0.00 0.00 0.00 77 975.1
20260508122145 8 210 4.8 6.4 0.00 0.00 0.00 77 975.1
20260508122140 8 210 4.8 6.4 0.00 0.00 0.00 77 975.1
20260508122132 10 226 1.6 8.0 0.00 0.00 0.00 70 975.1
20260508122125 8 210 4.8 9.7 0.00 0.00 0.00 77 975.1
20260508122118 8 210 4.8 9.7 0.00 0.00 0.00 77 975.1
20260508122109 8 216 4.8 9.7 0.00 0.00 0.00 77 975.1
20260508122102 8 216 4.8 9.7 0.00 0.00 0.00 77 975.1
20260508122048 8 214 4.8 9.7 0.00 0.00 0.00 77 975.1
20260508122042 8 214 4.8 9.7 0.00 0.00 0.00 77 975.1
20260508122038 10 227 1.6 8.0 0.00 0.00 0.00 70 975.1
20260508122030 8 211 4.8 9.7 0.00 0.00 0.00 77 975.1
20260508122024 8 211 4.8 9.7 0.00 0.00 0.00 77 975.0
20260508122017 8 213 4.8 9.7 0.00 0.00 0.00 78 975.1
20260508122010 8 210 4.8 9.7 0.00 0.00 0.00 78 975.1
20260508122003 8 212 4.8 9.7 0.00 0.00 0.00 78 975.1
20260508121954 8 224 4.8 9.7 0.00 0.00 0.00 79 975.1
20260508121947 8 211 4.8 9.7 0.00 0.00 0.00 79 975.1
20260508121940 8 208 4.8 9.7 0.00 0.00 0.00 79 975.1
20260508121935 10 209 1.6 4.8 0.00 0.00 0.00 71 975.1
20260508121929 8 208 4.8 9.7 0.00 0.00 0.00 79 975.1
20260508121921 8 207 4.8 9.7 0.00 0.00 0.00 79 975.1
20260508121914 8 214 4.8 8.0 0.00 0.00 0.00 79 975.1
20260508121906 8 212 4.8 8.0 0.00 0.00 0.00 80 975.1
20260508121901 8 217 4.8 8.0 0.00 0.00 0.00 80 975.1
20260508121855 8 211 4.8 8.0 0.00 0.00 0.00 80 975.1
20260508121849 8 203 4.8 6.4 0.00 0.00 0.00 80 975.2
20260508121838 8 212 3.2 6.4 0.00 0.00 0.00 80 975.2
20260508121832 9 219 1.6 4.8 0.00 0.00 0.00 71 975.1
20260508121827 8 208 3.2 6.4 0.00 0.00 0.00 80 975.2
20260508121818 8 183 3.2 4.8 0.00 0.00 0.00 80 975.2
20260508121808 8 183 3.2 4.8 0.00 0.00 0.00 80 975.2
20260508121803 8 181 3.2 4.8 0.00 0.00 0.00 80 975.2
20260508121756 8 181 3.2 4.8 0.00 0.00 0.00 80 975.2
20260508121750 8 181 3.2 6.4 0.00 0.00 0.00 79 975.1
20260508121744 8 181 3.2 6.4 0.00 0.00 0.00 79 975.2
20260508121739 8 181 3.2 8.0 0.00 0.00 0.00 79 975.2
20260508121730 9 216 1.6 4.8 0.00 0.00 0.00 70 975.1
20260508121723 8 181 4.8 8.0 0.00 0.00 0.00 79 975.1
20260508121719 8 181 4.8 8.0 0.00 0.00 0.00 79 975.1
20260508121713 8 181 4.8 8.0 0.00 0.00 0.00 79 975.1
20260508121709 8 181 4.8 8.0 0.00 0.00 0.00 79 975.1
20260508121657 8 181 4.8 8.0 0.00 0.00 0.00 79 975.1
20260508121653 8 181 4.8 8.0 0.00 0.00 0.00 79 975.0
20260508121646 8 181 4.8 8.0 0.00 0.00 0.00 79 975.0
20260508121639 8 181 4.8 8.0 0.00 0.00 0.00 79 975.0
20260508121632 9 216 1.6 4.8 0.00 0.00 0.00 71 975.2
20260508121628 8 180 4.8 8.0 0.00 0.00 0.00 79 975.0
20260508121615 8 178 4.8 8.0 0.00 0.00 0.00 79 975.0
20260508121609 8 221 4.8 8.0 0.00 0.00 0.00 79 975.0
20260508121603 8 221 4.8 8.0 0.00 0.00 0.00 79 975.0
20260508121557 8 221 4.8 8.0 0.00 0.00 0.00 79 975.0
20260508121552 8 221 4.8 8.0 0.00 0.00 0.00 79 975.0
20260508121543 8 221 3.2 6.4 0.00 0.00 0.00 79 975.1
20260508121539 8 221 3.2 6.4 0.00 0.00 0.00 79 975.1
20260508121532 9 214 1.6 4.8 0.00 0.00 0.00 72 975.2
20260508121529 8 221 3.2 6.4 0.00 0.00 0.00 78 975.0
20260508121512 8 221 3.2 6.4 0.00 0.00 0.00 78 975.0
20260508121501 8 221 3.2 6.4 0.00 0.00 0.00 78 975.1
20260508121447 8 221 3.2 6.4 0.00 0.00 0.00 78 975.1
20260508121443 8 221 1.6 6.4 0.00 0.00 0.00 77 975.0
20260508121439 8 221 1.6 6.4 0.00 0.00 0.00 77 975.1
20260508121431 9 214 1.6 3.2 0.00 0.00 0.00 72 975.2
20260508121426 8 221 1.6 6.4 0.00 0.00 0.00 77 975.1
20260508121418 8 221 1.6 6.4 0.00 0.00 0.00 77 975.1
20260508121404 8 221 1.6 6.4 0.00 0.00 0.00 77 975.1
20260508121357 8 221 1.6 6.4 0.00 0.00 0.00 76 975.1
20260508121349 8 221 1.6 6.4 0.00 0.00 0.00 76 975.1
20260508121346 8 221 1.6 6.4 0.00 0.00 0.00 76 975.1
20260508121340 8 221 1.6 6.4 0.00 0.00 0.00 76 975.1
20260508121330 9 214 1.6 3.2 0.00 0.00 0.00 72 975.2
20260508121324 8 221 3.2 6.4 0.00 0.00 0.00 76 975.1
20260508121318 8 221 3.2 6.4 0.00 0.00 0.00 76 975.0
20260508121312 8 221 3.2 6.4 0.00 0.00 0.00 76 975.0
20260508121300 8 221 3.2 6.4 0.00 0.00 0.00 76 974.9
20260508121256 8 221 3.2 6.4 0.00 0.00 0.00 76 974.9
20260508121249 8 221 4.8 6.4 0.00 0.00 0.00 76 974.9
20260508121240 8 221 4.8 6.4 0.00 0.00 0.00 76 975.0
20260508121237 9 214 1.6 3.2 0.00 0.00 0.00 72 975.3
20260508121226 8 221 4.8 6.4 0.00 0.00 0.00 76 975.0
20260508121218 8 221 4.8 6.4 0.00 0.00 0.00 76 975.0
20260508121211 8 221 4.8 6.4 0.00 0.00 0.00 76 975.0
20260508121158 8 221 4.8 6.4 0.00 0.00 0.00 76 975.0
20260508121150 8 221 4.8 6.4 0.00 0.00 0.00 76 975.0
20260508121145 8 221 4.8 6.4 0.00 0.00 0.00 76 975.0
20260508121137 8 221 4.8 6.4 0.00 0.00 0.00 76 975.0
20260508121130 9 214 1.6 4.8 0.00 0.00 0.00 73 975.3
20260508121124 8 221 4.8 6.4 0.00 0.00 0.00 76 975.0
20260508121108 8 221 4.8 6.4 0.00 0.00 0.00 76 975.0
20260508121103 8 221 4.8 6.4 0.00 0.00 0.00 76 975.0
20260508121052 8 221 4.8 6.4 0.00 0.00 0.00 75 975.0
20260508121048 8 221 4.8 6.4 0.00 0.00 0.00 75 975.0
20260508121039 8 221 4.8 6.4 0.00 0.00 0.00 75 975.0
20260508121030 9 214 1.6 4.8 0.00 0.00 0.00 73 975.1
20260508121023 9 221 3.2 6.4 0.00 0.00 0.00 75 975.0
20260508121017 9 221 3.2 6.4 0.00 0.00 0.00 75 975.0
20260508121010 9 221 3.2 6.4 0.00 0.00 0.00 75 975.0
20260508121004 9 221 3.2 6.4 0.00 0.00 0.00 75 975.0
20260508120956 9 221 3.2 6.4 0.00 0.00 0.00 75 974.9
20260508120949 9 221 3.2 6.4 0.00 0.00 0.00 75 975.0
20260508120943 9 221 3.2 6.4 0.00 0.00 0.00 75 975.0
20260508120938 9 221 3.2 4.8 0.00 0.00 0.00 75 975.0
20260508120931 9 214 3.2 4.8 0.00 0.00 0.00 71 975.1
20260508120924 9 221 3.2 6.4 0.00 0.00 0.00 75 975.0
20260508120917 9 221 3.2 6.4 0.00 0.00 0.00 75 975.0
20260508120909 9 221 3.2 6.4 0.00 0.00 0.00 75 975.0
20260508120902 9 221 3.2 6.4 0.00 0.00 0.00 74 975.0
20260508120856 9 221 3.2 6.4 0.00 0.00 0.00 74 975.0
20260508120845 9 221 3.2 6.4 0.00 0.00 0.00 74 975.0
20260508120839 9 221 3.2 6.4 0.00 0.00 0.00 74 975.0
20260508120833 9 214 1.6 6.4 0.00 0.00 0.00 72 975.1
20260508120824 9 221 3.2 6.4 0.00 0.00 0.00 74 975.0
20260508120817 9 221 3.2 6.4 0.00 0.00 0.00 74 975.1
20260508120810 9 221 3.2 6.4 0.00 0.00 0.00 74 975.1
20260508120804 9 219 3.2 6.4 0.00 0.00 0.00 74 975.1
20260508120759 9 219 3.2 6.4 0.00 0.00 0.00 74 975.1
20260508120749 9 219 1.6 4.8 0.00 0.00 0.00 74 975.1
20260508120744 9 219 3.2 4.8 0.00 0.00 0.00 74 975.1
20260508120740 9 219 3.2 4.8 0.00 0.00 0.00 74 975.1
20260508120731 9 214 1.6 6.4 0.00 0.00 0.00 72 975.1
20260508120727 9 219 3.2 4.8 0.00 0.00 0.00 75 975.1
20260508120717 9 219 3.2 4.8 0.00 0.00 0.00 75 975.1
20260508120712 9 219 3.2 4.8 0.00 0.00 0.00 76 975.1
20260508120707 9 219 3.2 4.8 0.00 0.00 0.00 76 975.1
20260508120700 9 219 3.2 4.8 0.00 0.00 0.00 76 975.0
20260508120653 9 219 3.2 4.8 0.00 0.00 0.00 76 975.0
20260508120644 9 219 3.2 4.8 0.00 0.00 0.00 75 975.0
20260508120635 9 214 1.6 6.4 0.00 0.00 0.00 72 975.1
20260508120630 9 219 3.2 4.8 0.00 0.00 0.00 76 975.0
20260508120623 9 219 3.2 4.8 0.00 0.00 0.00 76 975.0
20260508120618 9 219 3.2 4.8 0.00 0.00 0.00 76 975.0
20260508120611 9 219 3.2 4.8 0.00 0.00 0.00 76 975.0
20260508120602 9 219 3.2 4.8 0.00 0.00 0.00 76 975.0
20260508120557 9 219 3.2 4.8 0.00 0.00 0.00 76 975.0
20260508120549 9 219 3.2 4.8 0.00 0.00 0.00 76 975.0
20260508120543 9 219 3.2 4.8 0.00 0.00 0.00 75 975.0
20260508120538 9 219 3.2 4.8 0.00 0.00 0.00 75 975.0
20260508120531 9 214 1.6 6.4 0.00 0.00 0.00 72 975.1
20260508120524 9 219 3.2 4.8 0.00 0.00 0.00 75 975.0
20260508120518 9 219 3.2 4.8 0.00 0.00 0.00 75 974.9
20260508120511 10 219 1.6 4.8 0.00 0.00 0.00 74 974.9
20260508120507 10 219 1.6 4.8 0.00 0.00 0.00 74 974.9
20260508120502 10 219 1.6 4.8 0.00 0.00 0.00 74 974.9
20260508120451 10 219 1.6 4.8 0.00 0.00 0.00 73 974.9
20260508120447 10 219 1.6 4.8 0.00 0.00 0.00 73 974.9
20260508120441 10 219 1.6 3.2 0.00 0.00 0.00 73 974.9
20260508120432 9 213 1.6 6.4 0.00 0.00 0.00 73 975.2
20260508120428 10 219 1.6 3.2 0.00 0.00 0.00 73 974.9
20260508120422 10 219 1.6 3.2 0.00 0.00 0.00 73 975.0
20260508120417 10 219 1.6 4.8 0.00 0.00 0.00 73 974.9
20260508120409 10 219 1.6 4.8 0.00 0.00 0.00 73 974.9
20260508120403 10 219 1.6 4.8 0.00 0.00 0.00 73 974.9
20260508120359 10 219 1.6 4.8 0.00 0.00 0.00 73 974.9
20260508120353 10 219 1.6 4.8 0.00 0.00 0.00 74 974.9
20260508120347 10 219 1.6 4.8 0.00 0.00 0.00 74 974.9
20260508120339 10 219 3.2 4.8 0.00 0.00 0.00 73 974.9
20260508120334 9 213 1.6 6.4 0.00 0.00 0.00 73 975.1
20260508120327 10 219 3.2 4.8 0.00 0.00 0.00 73 974.9
20260508120320 10 219 3.2 4.8 0.00 0.00 0.00 72 974.9
20260508120313 10 219 1.6 4.8 0.00 0.00 0.00 72 974.9
20260508120308 10 219 1.6 3.2 0.00 0.00 0.00 72 974.9
20260508120259 10 219 1.6 3.2 0.00 0.00 0.00 72 974.9
20260508120253 10 219 1.6 3.2 0.00 0.00 0.00 71 974.9
20260508120249 10 219 1.6 3.2 0.00 0.00 0.00 71 974.8
20260508120243 10 219 1.6 3.2 0.00 0.00 0.00 71 974.9
20260508120234 9 213 1.6 6.4 0.00 0.00 0.00 74 975.1
20260508120229 10 219 1.6 3.2 0.00 0.00 0.00 71 974.8
20260508120222 10 219 0.0 3.2 0.00 0.00 0.00 71 974.9
20260508120218 10 219 0.0 3.2 0.00 0.00 0.00 71 974.9
20260508120212 10 219 0.0 4.8 0.00 0.00 0.00 71 974.9
20260508120207 10 219 0.0 4.8 0.00 0.00 0.00 71 974.9
20260508120202 10 219 0.0 4.8 0.00 0.00 0.00 71 975.0
20260508120155 10 219 0.0 4.8 0.00 0.00 0.00 71 975.0
20260508120149 10 219 0.0 4.8 0.00 0.00 0.00 71 975.1
20260508120142 10 219 0.0 4.8 0.00 0.00 0.00 71 975.1
20260508120136 10 219 1.6 4.8 0.00 0.00 0.00 71 975.1
20260508120130 9 210 1.6 6.4 0.00 0.00 0.00 74 975.1
20260508120124 10 219 1.6 4.8 0.00 0.00 0.00 71 975.0
20260508120120 9 231 1.6 4.8 0.00 0.00 0.00 73 975.2
20260508120114 8 231 1.6 4.8 0.00 0.00 0.00 73 975.2
20260508120108 8 231 1.6 4.8 0.00 0.00 0.00 73 975.2
20260508120056 8 231 1.6 4.8 0.00 0.00 0.00 72 975.1
20260508120050 8 231 1.6 4.8 0.00 0.00 0.00 72 975.1
20260508120046 8 231 1.6 4.8 0.00 0.00 0.00 72 975.1
20260508120041 8 231 1.6 4.8 0.00 0.00 0.00 73 975.1
20260508120035 8 231 1.6 4.8 0.00 0.00 0.00 73 975.1
20260508120029 9 178 1.6 6.4 0.00 0.00 0.00 73 975.1
20260508120023 8 214 1.6 4.8 0.00 0.00 0.00 73 975.0
20260508120018 8 214 1.6 4.8 0.00 0.00 0.00 73 975.1
20260508120012 8 219 1.6 4.8 0.00 0.00 0.00 73 975.1
20260508120005 8 224 1.6 4.8 0.00 0.00 0.00 73 975.1
20260508115958 8 224 1.6 6.4 0.00 0.00 0.00 73 975.1
20260508115952 8 224 1.6 6.4 0.00 0.00 0.00 73 975.2
20260508115942 8 224 1.6 6.4 0.00 0.00 0.00 73 975.1
20260508115935 8 224 1.6 6.4 0.00 0.00 0.00 73 975.1
20260508115930 9 182 1.6 6.4 0.00 0.00 0.00 74 975.1
20260508115926 8 224 1.6 6.4 0.00 0.00 0.00 72 975.1
20260508115918 8 224 1.6 6.4 0.00 0.00 0.00 72 975.0
20260508115912 8 224 1.6 6.4 0.00 0.00 0.00 73 975.0
20260508115906 8 224 1.6 6.4 0.00 0.00 0.00 73 974.9
20260508115901 8 224 1.6 6.4 0.00 0.00 0.00 73 974.9
20260508115855 8 186 1.6 6.4 0.00 0.00 0.00 72 974.9
20260508115850 8 174 1.6 6.4 0.00 0.00 0.00 72 974.9
20260508115844 8 173 3.2 6.4 0.00 0.00 0.00 72 975.0
20260508115839 8 291 3.2 6.4 0.00 0.00 0.00 73 975.1
20260508115833 9 182 1.6 6.4 0.00 0.00 0.00 74 975.2
20260508115826 8 291 3.2 6.4 0.00 0.00 0.00 73 975.1
20260508115820 8 291 3.2 6.4 0.00 0.00 0.00 73 975.1
20260508115816 8 286 3.2 6.4 0.00 0.00 0.00 73 975.1
20260508115810 8 269 3.2 6.4 0.00 0.00 0.00 72 975.0
20260508115802 8 245 3.2 6.4 0.00 0.00 0.00 72 975.0
20260508115757 8 212 3.2 6.4 0.00 0.00 0.00 72 974.9
20260508115751 8 221 3.2 6.4 0.00 0.00 0.00 72 974.8
20260508115744 8 184 3.2 6.4 0.00 0.00 0.00 72 974.7
20260508115738 8 179 3.2 6.4 0.00 0.00 0.00 72 974.8
20260508115730 9 182 1.6 6.4 0.00 0.00 0.00 73 975.2
20260508115724 8 205 3.2 4.8 0.00 0.00 0.00 72 974.9
20260508115720 8 321 3.2 4.8 0.00 0.00 0.00 72 975.0
20260508115714 8 321 3.2 4.8 0.00 0.00 0.00 72 975.0
20260508115708 8 321 3.2 4.8 0.00 0.00 0.00 72 975.1
20260508115704 8 321 3.2 4.8 0.00 0.00 0.00 72 975.1
20260508115658 8 248 3.2 4.8 0.00 0.00 0.00 71 975.0
20260508115653 8 246 3.2 4.8 0.00 0.00 0.00 72 974.9
20260508115647 8 217 3.2 4.8 0.00 0.00 0.00 72 974.8
20260508115641 8 205 1.6 4.8 0.00 0.00 0.00 72 974.8
20260508115637 8 205 1.6 4.8 0.00 0.00 0.00 72 974.8
20260508115631 9 182 3.2 6.4 0.00 0.00 0.00 73 975.2
20260508115621 8 195 1.6 4.8 0.00 0.00 0.00 72 974.8
20260508115614 8 207 1.6 4.8 0.00 0.00 0.00 72 974.9
20260508115610 8 324 1.6 4.8 0.00 0.00 0.00 72 974.9
20260508115604 8 324 1.6 4.8 0.00 0.00 0.00 72 975.0
20260508115558 8 324 1.6 6.4 0.00 0.00 0.00 71 975.0
20260508115548 9 324 1.6 6.4 0.00 0.00 0.00 71 975.0
20260508115541 9 321 1.6 6.4 0.00 0.00 0.00 71 975.0
20260508115530 9 182 3.2 6.4 0.00 0.00 0.00 73 975.1
20260508115524 9 328 1.6 6.4 0.00 0.00 0.00 70 975.0
20260508115517 9 333 1.6 6.4 0.00 0.00 0.00 70 974.9
20260508115513 9 220 1.6 6.4 0.00 0.00 0.00 69 974.9
20260508115507 9 220 1.6 6.4 0.00 0.00 0.00 70 974.8
20260508115502 9 220 1.6 6.4 0.00 0.00 0.00 70 974.7
20260508115456 9 217 1.6 6.4 0.00 0.00 0.00 70 974.7
20260508115452 9 248 1.6 6.4 0.00 0.00 0.00 69 974.7
20260508115447 9 250 1.6 4.8 0.00 0.00 0.00 70 974.7
20260508115441 9 249 0.0 4.8 0.00 0.00 0.00 69 974.7
20260508115434 9 356 1.6 3.2 0.00 0.00 0.00 70 974.7
20260508115430 9 182 3.2 6.4 0.00 0.00 0.00 73 975.1
20260508115425 9 356 1.6 4.8 0.00 0.00 0.00 70 974.7
20260508115419 9 356 1.6 4.8 0.00 0.00 0.00 70 974.7
20260508115415 9 356 1.6 4.8 0.00 0.00 0.00 69 974.7
20260508115409 9 356 1.6 4.8 0.00 0.00 0.00 69 974.7
20260508115403 9 356 1.6 4.8 0.00 0.00 0.00 69 974.7
20260508115357 9 356 1.6 4.8 0.00 0.00 0.00 69 974.7
20260508115352 9 356 1.6 4.8 0.00 0.00 0.00 69 974.7
20260508115347 9 356 1.6 4.8 0.00 0.00 0.00 68 974.7
20260508115342 9 356 1.6 4.8 0.00 0.00 0.00 67 974.7
20260508115335 9 27 1.6 6.4 0.00 0.00 0.00 67 974.6
20260508115331 9 182 3.2 6.4 0.00 0.00 0.00 74 975.0
20260508115325 9 27 1.6 6.4 0.00 0.00 0.00 68 974.6
20260508115320 9 258 1.6 6.4 0.00 0.00 0.00 68 974.5
20260508115314 9 231 1.6 6.4 0.00 0.00 0.00 68 974.5
20260508115310 9 231 3.2 8.0 0.00 0.00 0.00 69 974.5
20260508115300 9 231 3.2 11.3 0.00 0.00 0.00 69 974.5
20260508115255 9 231 4.8 12.9 0.00 0.00 0.00 69 974.4
20260508115250 9 231 4.8 12.9 0.00 0.00 0.00 69 974.4
20260508115244 9 203 4.8 12.9 0.00 0.00 0.00 68 974.3
20260508115238 9 203 4.8 12.9 0.00 0.00 0.00 68 974.3
20260508115233 9 182 3.2 6.4 0.00 0.00 0.00 73 975.1
20260508115225 9 203 4.8 12.9 0.00 0.00 0.00 67 974.3
20260508115221 9 190 4.8 12.9 0.00 0.00 0.00 67 974.4
20260508115215 9 231 6.4 14.5 0.00 0.00 0.00 67 974.3
20260508115210 9 249 6.4 14.5 0.00 0.00 0.00 67 974.4
20260508115205 9 179 6.4 14.5 0.00 0.00 0.00 67 974.4
20260508115159 9 216 6.4 14.5 0.00 0.00 0.00 67 974.4
20260508115153 9 241 6.4 14.5 0.00 0.00 0.00 67 974.4
20260508115149 9 243 6.4 14.5 0.00 0.00 0.00 68 974.4
20260508115143 9 222 6.4 14.5 0.00 0.00 0.00 68 974.4
20260508115138 9 226 6.4 14.5 0.00 0.00 0.00 68 974.4
20260508115131 9 184 3.2 6.4 0.00 0.00 0.00 73 975.1
20260508115126 9 233 6.4 14.5 0.00 0.00 0.00 68 974.3
20260508115120 9 207 6.4 14.5 0.00 0.00 0.00 68 974.3
20260508115116 9 216 6.4 12.9 0.00 0.00 0.00 68 974.3
20260508115110 9 220 6.4 12.9 0.00 0.00 0.00 68 974.3
20260508115106 9 206 6.4 12.9 0.00 0.00 0.00 68 974.3
20260508115100 9 184 6.4 12.9 0.00 0.00 0.00 68 974.3
20260508115054 9 201 6.4 12.9 0.00 0.00 0.00 68 974.3
20260508115049 9 217 6.4 12.9 0.00 0.00 0.00 68 974.4
20260508115044 9 188 6.4 12.9 0.00 0.00 0.00 68 974.3
20260508115037 9 184 3.2 6.4 0.00 0.00 0.00 73 975.1
20260508115031 9 245 6.4 12.9 0.00 0.00 0.00 68 974.3
20260508115023 9 219 6.4 12.9 0.00 0.00 0.00 68 974.4
20260508115017 9 231 6.4 9.7 0.00 0.00 0.00 68 974.3
20260508115012 9 227 4.8 9.7 0.00 0.00 0.00 68 974.3
20260508115008 9 216 6.4 9.7 0.00 0.00 0.00 68 974.4
20260508115002 9 220 6.4 9.7 0.00 0.00 0.00 68 974.3
20260508114955 9 211 6.4 9.7 0.00 0.00 0.00 68 974.3
20260508114949 9 215 4.8 9.7 0.00 0.00 0.00 68 974.4
20260508114944 9 223 4.8 9.7 0.00 0.00 0.00 68 974.4
20260508114938 9 229 4.8 9.7 0.00 0.00 0.00 68 974.4
20260508114934 9 229 4.8 9.7 0.00 0.00 0.00 67 974.4
20260508114929 9 186 1.6 6.4 0.00 0.00 0.00 73 975.1
20260508114923 9 202 4.8 9.7 0.00 0.00 0.00 67 974.4
20260508114916 9 213 4.8 11.3 0.00 0.00 0.00 67 974.4
20260508114911 9 213 4.8 11.3 0.00 0.00 0.00 67 974.4
20260508114905 9 213 4.8 11.3 0.00 0.00 0.00 67 974.4
20260508114900 9 228 4.8 11.3 0.00 0.00 0.00 67 974.5
20260508114854 9 216 4.8 11.3 0.00 0.00 0.00 66 974.5
20260508114848 9 229 6.4 11.3 0.00 0.00 0.00 66 974.4
20260508114843 9 250 6.4 11.3 0.00 0.00 0.00 66 974.5
20260508114837 9 224 6.4 11.3 0.00 0.00 0.00 66 974.5
20260508114832 9 181 1.6 6.4 0.00 0.00 0.00 72 975.1
20260508114826 9 237 6.4 11.3 0.00 0.00 0.00 66 974.5
20260508114820 10 216 6.4 11.3 0.00 0.00 0.00 66 974.5
20260508114815 10 210 4.8 11.3 0.00 0.00 0.00 66 974.5
20260508114809 10 196 4.8 11.3 0.00 0.00 0.00 66 974.5
20260508114804 10 233 4.8 11.3 0.00 0.00 0.00 66 974.5
20260508114758 10 227 4.8 11.3 0.00 0.00 0.00 66 974.5
20260508114752 10 262 4.8 11.3 0.00 0.00 0.00 66 974.5
20260508114746 10 240 4.8 11.3 0.00 0.00 0.00 66 974.5
20260508114741 10 230 4.8 12.9 0.00 0.00 0.00 66 974.5
20260508114735 10 231 4.8 12.9 0.00 0.00 0.00 66 974.5
20260508114728 9 186 1.6 4.8 0.00 0.00 0.00 72 975.1
20260508114722 10 224 4.8 12.9 0.00 0.00 0.00 66 974.6
20260508114717 10 250 4.8 12.9 0.00 0.00 0.00 66 974.6
20260508114711 10 245 4.8 12.9 0.00 0.00 0.00 66 974.6
20260508114705 10 216 4.8 12.9 0.00 0.00 0.00 65 974.5
20260508114700 10 249 4.8 12.9 0.00 0.00 0.00 65 974.6
20260508114654 10 228 4.8 12.9 0.00 0.00 0.00 65 974.6
20260508114648 10 254 4.8 12.9 0.00 0.00 0.00 65 974.6
20260508114644 10 229 4.8 12.9 0.00 0.00 0.00 66 974.6
20260508114636 10 274 4.8 16.1 0.00 0.00 0.00 65 974.6
20260508114629 9 187 0.0 4.8 0.00 0.00 0.00 72 975.2
20260508114625 10 226 4.8 16.1 0.00 0.00 0.00 65 974.6
20260508114618 10 238 4.8 16.1 0.00 0.00 0.00 65 974.6
20260508114613 10 269 4.8 16.1 0.00 0.00 0.00 65 974.6
20260508114602 10 226 4.8 16.1 0.00 0.00 0.00 65 974.6
20260508114557 10 241 4.8 16.1 0.00 0.00 0.00 65 974.5
20260508114551 10 248 4.8 16.1 0.00 0.00 0.00 65 974.5
20260508114547 10 225 4.8 16.1 0.00 0.00 0.00 65 974.6
20260508114541 10 217 6.4 16.1 0.00 0.00 0.00 65 974.6
20260508114532 9 231 0.0 3.2 0.00 0.00 0.00 72 975.2
20260508114527 10 210 6.4 16.1 0.00 0.00 0.00 65 974.5
20260508114521 10 247 4.8 14.5 0.00 0.00 0.00 65 974.6
20260508114513 10 214 4.8 14.5 0.00 0.00 0.00 65 974.6
20260508114506 10 264 4.8 14.5 0.00 0.00 0.00 65 974.6
20260508114500 10 266 6.4 14.5 0.00 0.00 0.00 65 974.6
20260508114452 10 274 6.4 14.5 0.00 0.00 0.00 65 974.6
20260508114446 10 237 6.4 14.5 0.00 0.00 0.00 65 974.6
20260508114440 10 224 6.4 14.5 0.00 0.00 0.00 65 974.5
20260508114436 10 257 6.4 14.5 0.00 0.00 0.00 65 974.6
20260508114431 9 231 0.0 3.2 0.00 0.00 0.00 72 975.2
20260508114426 10 273 6.4 14.5 0.00 0.00 0.00 65 974.5
20260508114419 10 252 6.4 19.3 0.00 0.00 0.00 65 974.6
20260508114413 10 207 8.0 19.3 0.00 0.00 0.00 65 974.5
20260508114406 10 246 8.0 19.3 0.00 0.00 0.00 65 974.6
20260508114400 10 238 8.0 19.3 0.00 0.00 0.00 65 974.6
20260508114356 10 238 8.0 19.3 0.00 0.00 0.00 65 974.6
20260508114348 10 269 6.4 19.3 0.00 0.00 0.00 65 974.7
20260508114342 10 184 6.4 19.3 0.00 0.00 0.00 65 974.7
20260508114336 10 241 6.4 19.3 0.00 0.00 0.00 64 974.7
20260508114330 9 231 0.0 1.6 0.00 0.00 0.00 73 975.2
20260508114324 10 266 6.4 19.3 0.00 0.00 0.00 64 974.6
20260508114320 10 237 6.4 19.3 0.00 0.00 0.00 64 974.7
20260508114313 10 229 4.8 17.7 0.00 0.00 0.00 64 974.8
20260508114309 10 217 6.4 11.3 0.00 0.00 0.00 64 974.7
20260508114303 10 248 4.8 12.9 0.00 0.00 0.00 64 974.7
20260508114257 10 264 4.8 12.9 0.00 0.00 0.00 64 974.7
20260508114252 10 281 4.8 12.9 0.00 0.00 0.00 63 974.7
20260508114245 10 245 4.8 12.9 0.00 0.00 0.00 63 974.7
20260508114237 10 224 4.8 12.9 0.00 0.00 0.00 63 974.7
20260508114229 9 231 0.0 1.6 0.00 0.00 0.00 73 975.2
20260508114223 10 224 4.8 12.9 0.00 0.00 0.00 63 974.7
20260508114219 10 243 4.8 12.9 0.00 0.00 0.00 63 974.8
20260508114212 10 205 4.8 12.9 0.00 0.00 0.00 63 974.7
20260508114205 10 221 4.8 12.9 0.00 0.00 0.00 63 974.7
20260508114159 10 232 4.8 12.9 0.00 0.00 0.00 63 974.8
20260508114155 10 226 6.4 16.1 0.00 0.00 0.00 63 974.8
20260508114149 10 228 6.4 16.1 0.00 0.00 0.00 63 974.8
20260508114144 10 237 6.4 16.1 0.00 0.00 0.00 63 974.8
20260508114138 10 176 6.4 16.1 0.00 0.00 0.00 63 974.8
20260508114133 10 247 6.4 16.1 0.00 0.00 0.00 63 974.8
20260508114127 9 231 0.0 1.6 0.00 0.00 0.00 73 975.2
20260508114121 10 245 6.4 16.1 0.00 0.00 0.00 63 974.8
20260508114117 10 212 6.4 16.1 0.00 0.00 0.00 63 974.8
20260508114111 10 230 6.4 16.1 0.00 0.00 0.00 63 974.8
20260508114057 10 254 6.4 16.1 0.00 0.00 0.00 63 974.8
20260508114052 10 247 6.4 16.1 0.00 0.00 0.00 62 974.8
20260508114047 10 261 6.4 16.1 0.00 0.00 0.00 63 974.8
20260508114041 10 220 6.4 12.9 0.00 0.00 0.00 63 974.8
20260508114032 10 221 8.0 12.9 0.00 0.00 0.00 62 974.8
20260508114028 9 231 0.0 1.6 0.00 0.00 0.00 72 975.2
20260508114020 10 165 8.0 16.1 0.00 0.00 0.00 62 974.8
20260508114014 10 224 8.0 16.1 0.00 0.00 0.00 62 974.8
20260508114006 8 231 0.0 4.8 0.00 0.00 0.00 72 975.2
20260508114000 8 231 0.0 1.6 0.00 0.00 0.00 72 975.2
20260508113952 10 236 8.0 16.1 0.00 0.00 0.00 62 974.9